Wetterdaten: Sonntag, 06.08.2017
Datum Zeit Temp. Aussen Temp. o. S. +5cm Feuchte Auss BlattFeu 1 Luftdruck Regen Sonnenschein Regendauer Solar Windben Empfang
06.08.2017 00:00 15,9 C 15,0 C 13,9 C 91 % 1 lf 1018,1 hPa 0,0 l/m 0 min 0 min 0 W/m 0,0 km/h (0 Bft) 91,49 %
06.08.2017 00:02 15,9 C 15,0 C 13,9 C 91 % 1 lf 1018,2 hPa 0,0 l/m 0 min 0 min 5 W/m 0,0 km/h (0 Bft) 13,33 %
06.08.2017 00:04 15,9 C 14,4 C 13,3 C 91 % 1 lf 1018,2 hPa 0,0 l/m 0 min 0 min 5 W/m 0,0 km/h (0 Bft) 9,09 %
06.08.2017 00:08 15,7 C 14,4 C 13,3 C 91 % 1 lf 1018,3 hPa 0,0 l/m 0 min 0 min 0 W/m 0,0 km/h (0 Bft) 92,68 %
06.08.2017 00:10 15,7 C 14,4 C 13,3 C 91 % 1 lf 1018,3 hPa 0,0 l/m 0 min 0 min 0 W/m 0,0 km/h (0 Bft) 93,62 %
06.08.2017 00:12 15,7 C 14,4 C 13,3 C 91 % 1 lf 1018,3 hPa 0,0 l/m 0 min 0 min 0 W/m 0,0 km/h (0 Bft) 91,49 %
06.08.2017 00:14 15,6 C 13,9 C 12,8 C 91 % 1 lf 1018,3 hPa 0,0 l/m 0 min 0 min 5 W/m 0,0 km/h (0 Bft) 93,62 %
06.08.2017 00:16 15,6 C 13,9 C 12,8 C 91 % 1 lf 1018,4 hPa 0,0 l/m 0 min 0 min 0 W/m 0,0 km/h (0 Bft) 95,65 %
06.08.2017 00:18 15,6 C 13,9 C 12,8 C 91 % 1 lf 1018,5 hPa 0,0 l/m 0 min 0 min 3 W/m 0,0 km/h (0 Bft) 95,74 %
06.08.2017 00:20 15,5 C 13,9 C 12,8 C 91 % 1 lf 1018,4 hPa 0,0 l/m 0 min 0 min 0 W/m 0,0 km/h (0 Bft) 95,74 %
06.08.2017 00:22 15,4 C 13,9 C 12,8 C 91 % 1 lf 1018,4 hPa 0,0 l/m 0 min 0 min 0 W/m 0,0 km/h (0 Bft) 91,49 %
06.08.2017 00:24 15,4 C 13,9 C 12,8 C 91 % 1 lf 1018,4 hPa 0,0 l/m 0 min 0 min 0 W/m 6,3 km/h (2 Bft) 95,74 %
06.08.2017 00:26 15,3 C 13,9 C 12,8 C 91 % 1 lf 1018,6 hPa 0,0 l/m 0 min 0 min 0 W/m 4,2 km/h (1 Bft) 95,74 %
06.08.2017 00:28 15,3 C 13,9 C 12,8 C 91 % 1 lf 1018,5 hPa 0,0 l/m 0 min 0 min 0 W/m 4,2 km/h (1 Bft) 95,65 %
06.08.2017 00:30 15,3 C 13,9 C 12,8 C 91 % 1 lf 1018,6 hPa 0,0 l/m 0 min 0 min 5 W/m 4,2 km/h (1 Bft) 95,74 %
06.08.2017 00:32 15,2 C 13,3 C 12,8 C 91 % 1 lf 1018,7 hPa 0,0 l/m 0 min 0 min 5 W/m 4,2 km/h (1 Bft) 95,74 %
06.08.2017 00:34 15,2 C 13,3 C 12,2 C 91 % 1 lf 1018,6 hPa 0,0 l/m 0 min 0 min 5 W/m 8,4 km/h (2 Bft) 97,87 %
06.08.2017 00:36 15,1 C 13,3 C 12,2 C 91 % 1 lf 1018,6 hPa 0,0 l/m 0 min 0 min 5 W/m 8,4 km/h (2 Bft) 97,87 %
06.08.2017 00:38 15,1 C 13,3 C 12,2 C 91 % 1 lf 1018,7 hPa 0,0 l/m 0 min 0 min 5 W/m 8,4 km/h (2 Bft) 95,74 %
06.08.2017 00:40 15,0 C 13,3 C 12,2 C 91 % 1 lf 1018,6 hPa 0,0 l/m 0 min 0 min 5 W/m 6,3 km/h (2 Bft) 93,48 %
06.08.2017 00:42 15,0 C 13,3 C 12,2 C 91 % 1 lf 1018,7 hPa 0,0 l/m 0 min 0 min 5 W/m 6,3 km/h (2 Bft) 97,87 %
06.08.2017 00:44 14,9 C 13,3 C 12,2 C 91 % 1 lf 1018,7 hPa 0,0 l/m 0 min 0 min 5 W/m 6,3 km/h (2 Bft) 97,87 %
06.08.2017 00:46 14,9 C 13,3 C 12,2 C 91 % 1 lf 1018,7 hPa 0,0 l/m 0 min 0 min 5 W/m 6,3 km/h (2 Bft) 97,87 %
06.08.2017 00:48 14,9 C 12,8 C 12,2 C 91 % 1 lf 1018,7 hPa 0,0 l/m 0 min 0 min 5 W/m 6,3 km/h (2 Bft) 100,00 %
06.08.2017 00:50 14,8 C 12,8 C 12,2 C 91 % 1 lf 1018,7 hPa 0,0 l/m 0 min 0 min 5 W/m 4,2 km/h (1 Bft) 97,83 %
06.08.2017 00:52 14,8 C 12,8 C 12,2 C 91 % 1 lf 1018,7 hPa 0,0 l/m 0 min 0 min 5 W/m 6,3 km/h (2 Bft) 97,87 %
06.08.2017 00:54 14,8 C 12,8 C 12,2 C 91 % 1 lf 1018,7 hPa 0,0 l/m 0 min 0 min 5 W/m 6,3 km/h (2 Bft) 97,87 %
06.08.2017 00:56 14,7 C 12,8 C 12,2 C 91 % 1 lf 1018,7 hPa 0,0 l/m 0 min 0 min 5 W/m 2,1 km/h (1 Bft) 100,00 %
06.08.2017 00:58 14,7 C 12,8 C 12,2 C 91 % 1 lf 1018,7 hPa 0,0 l/m 0 min 0 min 5 W/m 6,3 km/h (2 Bft) 95,74 %
06.08.2017 01:00 14,7 C 12,8 C 11,7 C 91 % 1 lf 1018,7 hPa 0,0 l/m 0 min 0 min 0 W/m 8,4 km/h (2 Bft) 95,74 %
06.08.2017 01:02 14,6 C 12,8 C 11,7 C 91 % 2 lf 1018,8 hPa 0,0 l/m 0 min 0 min 5 W/m 6,3 km/h (2 Bft) 100,00 %
06.08.2017 01:04 14,6 C 12,8 C 11,7 C 91 % 2 lf 1018,8 hPa 0,0 l/m 0 min 0 min 0 W/m 4,2 km/h (1 Bft) 100,00 %
06.08.2017 01:06 14,5 C 12,8 C 11,7 C 91 % 2 lf 1018,8 hPa 0,0 l/m 0 min 0 min 0 W/m 8,4 km/h (2 Bft) 100,00 %
06.08.2017 01:08 14,5 C 12,8 C 11,7 C 91 % 2 lf 1018,9 hPa 0,0 l/m 0 min 0 min 0 W/m 4,2 km/h (1 Bft) 95,74 %
06.08.2017 01:10 14,4 C 12,8 C 11,7 C 91 % 2 lf 1018,8 hPa 0,0 l/m 0 min 0 min 0 W/m 8,4 km/h (2 Bft) 100,00 %
06.08.2017 01:12 14,4 C 12,8 C 12,2 C 91 % 2 lf 1018,8 hPa 0,0 l/m 0 min 0 min 0 W/m 6,3 km/h (2 Bft) 97,87 %
06.08.2017 01:14 14,3 C 12,8 C 11,7 C 91 % 2 lf 1018,9 hPa 0,0 l/m 0 min 0 min 0 W/m 4,2 km/h (1 Bft) 100,00 %
06.08.2017 01:16 14,3 C 12,8 C 11,7 C 91 % 2 lf 1018,9 hPa 0,0 l/m 0 min 0 min 0 W/m 6,3 km/h (2 Bft) 95,74 %
06.08.2017 01:18 14,2 C 12,8 C 11,7 C 91 % 2 lf 1018,9 hPa 0,0 l/m 0 min 0 min 0 W/m 4,2 km/h (1 Bft) 100,00 %
06.08.2017 01:20 14,2 C 12,8 C 11,7 C 91 % 2 lf 1018,9 hPa 0,0 l/m 0 min 0 min 5 W/m 4,2 km/h (1 Bft) 100,00 %
06.08.2017 01:22 14,2 C 12,8 C 11,7 C 91 % 2 lf 1019,0 hPa 0,0 l/m 0 min 0 min 5 W/m 8,4 km/h (2 Bft) 97,87 %
06.08.2017 01:24 14,2 C 12,8 C 11,7 C 91 % 2 lf 1018,9 hPa 0,0 l/m 0 min 0 min 5 W/m 6,3 km/h (2 Bft) 100,00 %
06.08.2017 01:26 14,2 C 12,8 C 11,7 C 92 % 3 lf 1019,0 hPa 0,0 l/m 0 min 0 min 5 W/m 8,4 km/h (2 Bft) 95,65 %
06.08.2017 01:28 14,2 C 12,8 C 11,7 C 92 % 3 lf 1019,0 hPa 0,0 l/m 0 min 0 min 3 W/m 10,5 km/h (2 Bft) 97,87 %
06.08.2017 01:30 14,2 C 12,8 C 11,7 C 92 % 3 lf 1019,0 hPa 0,0 l/m 0 min 0 min 0 W/m 6,3 km/h (2 Bft) 95,74 %
06.08.2017 01:32 14,2 C 12,8 C 11,7 C 92 % 3 lf 1019,0 hPa 0,0 l/m 0 min 0 min 0 W/m 4,2 km/h (1 Bft) 95,74 %
06.08.2017 01:34 14,1 C 12,8 C 11,7 C 92 % 3 lf 1019,0 hPa 0,0 l/m 0 min 0 min 2 W/m 6,3 km/h (2 Bft) 97,87 %
06.08.2017 01:36 14,1 C 12,8 C 11,7 C 92 % 3 lf 1019,0 hPa 0,0 l/m 0 min 0 min 0 W/m 6,3 km/h (2 Bft) 93,62 %
06.08.2017 01:38 14,0 C 12,8 C 11,7 C 92 % 3 lf 1019,0 hPa 0,0 l/m 0 min 0 min 0 W/m 10,5 km/h (2 Bft) 97,83 %
06.08.2017 01:40 14,0 C 12,8 C 11,7 C 92 % 3 lf 1019,1 hPa 0,0 l/m 0 min 0 min 0 W/m 8,4 km/h (2 Bft) 95,74 %
06.08.2017 01:42 13,9 C 12,2 C 11,7 C 92 % 3 lf 1019,1 hPa 0,0 l/m 0 min 0 min 0 W/m 6,3 km/h (2 Bft) 95,74 %
06.08.2017 01:44 13,9 C 12,2 C 11,7 C 92 % 3 lf 1019,0 hPa 0,0 l/m 0 min 0 min 0 W/m 6,3 km/h (2 Bft) 95,74 %
06.08.2017 01:46 13,9 C 12,2 C 11,7 C 92 % 3 lf 1019,0 hPa 0,0 l/m 0 min 0 min 0 W/m 8,4 km/h (2 Bft) 95,74 %
06.08.2017 01:48 13,9 C 12,2 C 11,7 C 92 % 3 lf 1019,1 hPa 0,0 l/m 0 min 0 min 0 W/m 10,5 km/h (2 Bft) 95,74 %
06.08.2017 01:50 13,8 C 12,2 C 11,7 C 92 % 3 lf 1019,1 hPa 0,0 l/m 0 min 0 min 0 W/m 6,3 km/h (2 Bft) 95,65 %
06.08.2017 01:52 13,8 C 12,2 C 11,7 C 93 % 3 lf 1019,1 hPa 0,0 l/m 0 min 0 min 0 W/m 4,2 km/h (1 Bft) 91,49 %
06.08.2017 01:54 13,8 C 12,2 C 11,7 C 93 % 3 lf 1019,1 hPa 0,0 l/m 0 min 0 min 0 W/m 6,3 km/h (2 Bft) 95,74 %
06.08.2017 01:56 13,8 C 12,2 C 11,7 C 93 % 3 lf 1019,2 hPa 0,0 l/m 0 min 0 min 4 W/m 6,3 km/h (2 Bft) 95,74 %
06.08.2017 01:58 13,7 C 12,2 C 11,7 C 93 % 4 lf 1019,2 hPa 0,0 l/m 0 min 0 min 4 W/m 6,3 km/h (2 Bft) 95,74 %
06.08.2017 02:00 13,7 C 12,2 C 11,7 C 93 % 4 lf 1019,2 hPa 0,0 l/m 0 min 0 min 0 W/m 8,4 km/h (2 Bft) 91,49 %
06.08.2017 02:02 13,7 C 12,2 C 11,7 C 93 % 4 lf 1019,2 hPa 0,0 l/m 0 min 0 min 0 W/m 8,4 km/h (2 Bft) 95,65 %
06.08.2017 02:04 13,7 C 12,2 C 11,7 C 93 % 4 lf 1019,2 hPa 0,0 l/m 0 min 0 min 0 W/m 10,5 km/h (2 Bft) 95,74 %
06.08.2017 02:06 13,6 C 12,2 C 11,7 C 93 % 4 lf 1019,2 hPa 0,0 l/m 0 min 0 min 0 W/m 10,5 km/h (2 Bft) 95,74 %
06.08.2017 02:08 13,6 C 12,2 C 11,7 C 93 % 4 lf 1019,3 hPa 0,0 l/m 0 min 0 min 0 W/m 10,5 km/h (2 Bft) 93,62 %
06.08.2017 02:10 13,6 C 12,2 C 11,7 C 93 % 4 lf 1019,3 hPa 0,0 l/m 0 min 0 min 0 W/m 10,5 km/h (2 Bft) 95,74 %
06.08.2017 02:12 13,6 C 12,2 C 11,7 C 93 % 4 lf 1019,3 hPa 0,0 l/m 0 min 0 min 0 W/m 12,6 km/h (3 Bft) 97,83 %
06.08.2017 02:14 13,5 C 12,2 C 11,7 C 93 % 4 lf 1019,4 hPa 0,0 l/m 0 min 0 min 5 W/m 12,6 km/h (3 Bft) 100,00 %
06.08.2017 02:16 13,5 C 12,2 C 11,7 C 93 % 4 lf 1019,4 hPa 0,0 l/m 0 min 0 min 4 W/m 8,4 km/h (2 Bft) 95,74 %
06.08.2017 02:18 13,4 C 12,2 C 11,7 C 93 % 5 lf 1019,4 hPa 0,0 l/m 0 min 0 min 5 W/m 6,3 km/h (2 Bft) 97,87 %
06.08.2017 02:20 13,4 C 12,2 C 11,7 C 93 % 5 lf 1019,4 hPa 0,0 l/m 0 min 0 min 5 W/m 8,4 km/h (2 Bft) 100,00 %
06.08.2017 02:22 13,4 C 12,2 C 11,7 C 93 % 5 lf 1019,5 hPa 0,0 l/m 0 min 0 min 0 W/m 8,4 km/h (2 Bft) 100,00 %
06.08.2017 02:24 13,4 C 12,2 C 11,7 C 93 % 6 lf 1019,5 hPa 0,0 l/m 0 min 0 min 1 W/m 8,4 km/h (2 Bft) 100,00 %
06.08.2017 02:26 13,4 C 12,2 C 11,7 C 93 % 6 lf 1019,5 hPa 0,0 l/m 0 min 0 min 5 W/m 8,4 km/h (2 Bft) 95,74 %
06.08.2017 02:28 13,3 C 12,2 C 11,7 C 93 % 6 lf 1019,5 hPa 0,0 l/m 0 min 0 min 2 W/m 6,3 km/h (2 Bft) 100,00 %
06.08.2017 02:30 13,3 C 12,2 C 11,7 C 94 % 6 lf 1019,5 hPa 0,0 l/m 0 min 0 min 0 W/m 8,4 km/h (2 Bft) 100,00 %
06.08.2017 02:32 13,3 C 12,2 C 11,1 C 94 % 7 lf 1019,5 hPa 0,0 l/m 0 min 0 min 0 W/m 8,4 km/h (2 Bft) 97,87 %
06.08.2017 02:34 13,3 C 12,2 C 11,1 C 94 % 7 lf 1019,5 hPa 0,0 l/m 0 min 0 min 0 W/m 6,3 km/h (2 Bft) 100,00 %
06.08.2017 02:36 13,2 C 12,2 C 11,1 C 94 % 7 lf 1019,5 hPa 0,0 l/m 0 min 0 min 0 W/m 8,4 km/h (2 Bft) 100,00 %
06.08.2017 02:38 13,2 C 12,2 C 11,1 C 94 % 7 lf 1019,5 hPa 0,0 l/m 0 min 0 min 0 W/m 4,2 km/h (1 Bft) 97,87 %
06.08.2017 02:40 13,2 C 12,2 C 11,1 C 94 % 8 lf 1019,5 hPa 0,0 l/m 0 min 0 min 0 W/m 8,4 km/h (2 Bft) 100,00 %
06.08.2017 02:42 13,2 C 12,2 C 11,1 C 94 % 8 lf 1019,6 hPa 0,0 l/m 0 min 0 min 0 W/m 6,3 km/h (2 Bft) 100,00 %
06.08.2017 02:44 13,1 C 11,7 C 11,1 C 94 % 8 lf 1019,6 hPa 0,0 l/m 0 min 0 min 0 W/m 8,4 km/h (2 Bft) 97,87 %
06.08.2017 02:46 13,1 C 11,7 C 11,1 C 94 % 9 lf 1019,5 hPa 0,0 l/m 0 min 0 min 0 W/m 6,3 km/h (2 Bft) 100,00 %
06.08.2017 02:48 13,1 C 11,7 C 11,1 C 94 % 9 lf 1019,5 hPa 0,0 l/m 0 min 0 min 0 W/m 8,4 km/h (2 Bft) 100,00 %
06.08.2017 02:50 13,1 C 11,7 C 11,1 C 94 % 9 lf 1019,5 hPa 0,0 l/m 0 min 0 min 3 W/m 6,3 km/h (2 Bft) 100,00 %
06.08.2017 02:52 13,0 C 11,7 C 11,1 C 94 % 9 lf 1019,6 hPa 0,0 l/m 0 min 0 min 4 W/m 6,3 km/h (2 Bft) 100,00 %
06.08.2017 02:54 13,0 C 11,7 C 11,1 C 94 % 9 lf 1019,5 hPa 0,0 l/m 0 min 0 min 0 W/m 2,1 km/h (1 Bft) 97,87 %
06.08.2017 02:56 12,9 C 11,7 C 10,6 C 94 % 10 lf 1019,6 hPa 0,0 l/m 0 min 0 min 0 W/m 4,2 km/h (1 Bft) 95,74 %
06.08.2017 02:58 12,9 C 11,7 C 10,6 C 94 % 10 lf 1019,6 hPa 0,0 l/m 0 min 0 min 0 W/m 6,3 km/h (2 Bft) 95,74 %
06.08.2017 03:00 12,9 C 11,7 C 11,1 C 94 % 10 lf 1019,6 hPa 0,0 l/m 0 min 0 min 0 W/m 8,4 km/h (2 Bft) 97,83 %
06.08.2017 03:02 12,9 C 11,7 C 10,6 C 94 % 10 lf 1019,6 hPa 0,0 l/m 0 min 0 min 0 W/m 6,3 km/h (2 Bft) 97,87 %
06.08.2017 03:04 12,9 C 11,7 C 10,6 C 94 % 11 lf 1019,7 hPa 0,0 l/m 0 min 0 min 0 W/m 4,2 km/h (1 Bft) 97,87 %
06.08.2017 03:06 12,8 C 11,7 C 10,6 C 94 % 11 lf 1019,7 hPa 0,0 l/m 0 min 0 min 0 W/m 4,2 km/h (1 Bft) 95,74 %
06.08.2017 03:08 12,8 C 11,7 C 10,6 C 94 % 12 lf 1019,7 hPa 0,0 l/m 0 min 0 min 0 W/m 4,2 km/h (1 Bft) 97,87 %
06.08.2017 03:10 12,8 C 11,7 C 10,6 C 94 % 11 lf 1019,7 hPa 0,0 l/m 0 min 0 min 0 W/m 6,3 km/h (2 Bft) 97,83 %
06.08.2017 03:12 12,8 C 11,7 C 10,6 C 94 % 12 lf 1019,7 hPa 0,0 l/m 0 min 0 min 0 W/m 6,3 km/h (2 Bft) 97,87 %
06.08.2017 03:14 12,7 C 11,7 C 10,6 C 94 % 12 lf 1019,8 hPa 0,0 l/m 0 min 0 min 0 W/m 4,2 km/h (1 Bft) 95,74 %
06.08.2017 03:16 12,7 C 11,7 C 10,6 C 94 % 12 lf 1019,8 hPa 0,0 l/m 0 min 0 min 0 W/m 4,2 km/h (1 Bft) 95,74 %
06.08.2017 03:18 12,7 C 11,7 C 10,6 C 94 % 13 lf 1019,8 hPa 0,0 l/m 0 min 0 min 0 W/m 6,3 km/h (2 Bft) 95,74 %
06.08.2017 03:20 12,7 C 11,7 C 10,6 C 94 % 13 lf 1019,8 hPa 0,0 l/m 0 min 0 min 0 W/m 6,3 km/h (2 Bft) 97,87 %
06.08.2017 03:22 12,6 C 11,7 C 10,6 C 94 % 13 lf 1019,8 hPa 0,0 l/m 0 min 0 min 0 W/m 4,2 km/h (1 Bft) 95,65 %
06.08.2017 03:24 12,6 C 11,7 C 10,6 C 94 % 13 lf 1019,8 hPa 0,0 l/m 0 min 0 min 0 W/m 6,3 km/h (2 Bft) 97,87 %
06.08.2017 03:26 12,6 C 11,7 C 10,6 C 94 % 13 lf 1019,9 hPa 0,0 l/m 0 min 0 min 0 W/m 6,3 km/h (2 Bft) 97,87 %
06.08.2017 03:28 12,6 C 11,7 C 10,6 C 94 % 13 lf 1019,8 hPa 0,0 l/m 0 min 0 min 0 W/m 6,3 km/h (2 Bft) 95,74 %
06.08.2017 03:30 12,6 C 11,7 C 10,6 C 94 % 13 lf 1019,9 hPa 0,0 l/m 0 min 0 min 0 W/m 6,3 km/h (2 Bft) 93,62 %
06.08.2017 03:32 12,5 C 11,7 C 10,6 C 94 % 14 lf 1019,9 hPa 0,0 l/m 0 min 0 min 0 W/m 6,3 km/h (2 Bft) 93,62 %
06.08.2017 03:34 12,5 C 11,7 C 10,6 C 94 % 14 lf 1019,9 hPa 0,0 l/m 0 min 0 min 0 W/m 6,3 km/h (2 Bft) 91,30 %
06.08.2017 03:36 12,5 C 11,7 C 10,6 C 94 % 14 lf 1019,9 hPa 0,0 l/m 0 min 0 min 0 W/m 6,3 km/h (2 Bft) 91,49 %
06.08.2017 03:38 12,4 C 11,7 C 10,6 C 94 % 14 lf 1019,9 hPa 0,0 l/m 0 min 0 min 0 W/m 4,2 km/h (1 Bft) 93,62 %
06.08.2017 03:40 12,4 C 11,7 C 10,6 C 94 % 14 lf 1019,9 hPa 0,0 l/m 0 min 0 min 0 W/m 6,3 km/h (2 Bft) 93,62 %
06.08.2017 03:42 12,4 C 11,7 C 10,6 C 94 % 14 lf 1019,9 hPa 0,0 l/m 0 min 0 min 0 W/m 6,3 km/h (2 Bft) 91,49 %
06.08.2017 03:44 12,4 C 11,1 C 10,6 C 94 % 14 lf 1019,9 hPa 0,0 l/m 0 min 0 min 0 W/m 4,2 km/h (1 Bft) 93,62 %
06.08.2017 03:46 12,4 C 11,1 C 10,6 C 94 % 15 lf 1019,9 hPa 0,0 l/m 0 min 0 min 0 W/m 4,2 km/h (1 Bft) 93,48 %
06.08.2017 03:48 12,4 C 11,1 C 10,6 C 94 % 15 lf 1020,0 hPa 0,0 l/m 0 min 0 min 0 W/m 4,2 km/h (1 Bft) 93,62 %
06.08.2017 03:50 12,4 C 11,1 C 10,6 C 94 % 15 lf 1020,0 hPa 0,0 l/m 0 min 0 min 0 W/m 4,2 km/h (1 Bft) 95,74 %
06.08.2017 03:52 12,4 C 11,1 C 10,6 C 94 % 15 lf 1020,0 hPa 0,0 l/m 0 min 0 min 0 W/m 4,2 km/h (1 Bft) 95,74 %
06.08.2017 03:54 12,3 C 11,1 C 10,6 C 94 % 15 lf 1020,0 hPa 0,0 l/m 0 min 0 min 0 W/m 4,2 km/h (1 Bft) 95,74 %
06.08.2017 03:56 12,3 C 11,1 C 10,0 C 94 % 15 lf 1019,9 hPa 0,0 l/m 0 min 0 min 0 W/m 4,2 km/h (1 Bft) 95,74 %
06.08.2017 03:58 12,3 C 11,1 C 10,0 C 94 % 15 lf 1019,9 hPa 0,0 l/m 0 min 0 min 5 W/m 4,2 km/h (1 Bft) 91,30 %
06.08.2017 04:00 12,3 C 11,1 C 10,0 C 95 % 15 lf 1020,0 hPa 0,0 l/m 0 min 0 min 5 W/m 6,3 km/h (2 Bft) 91,49 %
06.08.2017 04:05 12,3 C 11,1 C 10,0 C 95 % 15 lf 1020,0 hPa 0,0 l/m 0 min 0 min 4 W/m 6,3 km/h (2 Bft) 100,00 %
06.08.2017 04:06 12,3 C 11,1 C 10,0 C 95 % 15 lf 1020,0 hPa 0,0 l/m 0 min 0 min 0 W/m 4,2 km/h (1 Bft) 95,83 %
06.08.2017 04:08 12,3 C 11,1 C 10,6 C 95 % 15 lf 1020,0 hPa 0,0 l/m 0 min 0 min 0 W/m 8,4 km/h (2 Bft) 95,74 %
06.08.2017 04:10 12,2 C 11,1 C 10,6 C 95 % 15 lf 1020,0 hPa 0,0 l/m 0 min 0 min 0 W/m 6,3 km/h (2 Bft) 97,83 %
06.08.2017 04:12 12,2 C 10,6 C 10,0 C 95 % 15 lf 1020,0 hPa 0,0 l/m 0 min 0 min 0 W/m 4,2 km/h (1 Bft) 95,74 %
06.08.2017 04:14 12,2 C 10,6 C 10,0 C 95 % 15 lf 1020,0 hPa 0,0 l/m 0 min 0 min 0 W/m 4,2 km/h (1 Bft) 95,74 %
06.08.2017 04:16 12,2 C 10,6 C 10,0 C 95 % 15 lf 1020,0 hPa 0,0 l/m 0 min 0 min 0 W/m 4,2 km/h (1 Bft) 93,62 %
06.08.2017 04:18 12,2 C 10,6 C 10,0 C 95 % 15 lf 1020,0 hPa 0,0 l/m 0 min 0 min 0 W/m 4,2 km/h (1 Bft) 95,74 %
06.08.2017 04:20 12,2 C 11,1 C 10,0 C 95 % 15 lf 1020,1 hPa 0,0 l/m 0 min 0 min 0 W/m 4,2 km/h (1 Bft) 95,74 %
06.08.2017 04:22 12,1 C 11,1 C 10,0 C 95 % 15 lf 1020,2 hPa 0,0 l/m 0 min 0 min 0 W/m 4,2 km/h (1 Bft) 95,65 %
06.08.2017 04:24 12,1 C 10,6 C 10,0 C 95 % 15 lf 1020,2 hPa 0,0 l/m 0 min 0 min 0 W/m 6,3 km/h (2 Bft) 93,62 %
06.08.2017 04:26 12,1 C 11,1 C 10,0 C 95 % 15 lf 1020,3 hPa 0,0 l/m 0 min 0 min 0 W/m 6,3 km/h (2 Bft) 95,74 %
06.08.2017 04:28 12,1 C 10,6 C 10,0 C 95 % 15 lf 1020,2 hPa 0,0 l/m 0 min 0 min 0 W/m 4,2 km/h (1 Bft) 87,23 %
06.08.2017 04:30 12,1 C 10,6 C 10,0 C 95 % 15 lf 1020,3 hPa 0,0 l/m 0 min 0 min 0 W/m 6,3 km/h (2 Bft) 93,62 %
06.08.2017 04:32 12,1 C 10,6 C 10,0 C 95 % 15 lf 1020,3 hPa 0,0 l/m 0 min 0 min 0 W/m 4,2 km/h (1 Bft) 95,65 %
06.08.2017 04:34 12,1 C 10,6 C 10,0 C 95 % 15 lf 1020,2 hPa 0,0 l/m 0 min 0 min 2 W/m 6,3 km/h (2 Bft) 93,62 %
06.08.2017 04:36 12,1 C 11,1 C 10,6 C 95 % 15 lf 1020,3 hPa 0,0 l/m 0 min 0 min 4 W/m 6,3 km/h (2 Bft) 93,62 %
06.08.2017 04:38 12,1 C 11,1 C 10,6 C 95 % 15 lf 1020,3 hPa 0,0 l/m 0 min 0 min 0 W/m 8,4 km/h (2 Bft) 97,87 %
06.08.2017 04:40 12,1 C 11,1 C 10,6 C 95 % 15 lf 1020,2 hPa 0,0 l/m 0 min 0 min 0 W/m 8,4 km/h (2 Bft) 97,87 %
06.08.2017 04:42 12,1 C 11,1 C 10,0 C 95 % 15 lf 1020,3 hPa 0,0 l/m 0 min 0 min 0 W/m 6,3 km/h (2 Bft) 95,74 %
06.08.2017 04:44 12,1 C 11,1 C 10,6 C 95 % 15 lf 1020,3 hPa 0,0 l/m 0 min 0 min 0 W/m 8,4 km/h (2 Bft) 93,48 %
06.08.2017 04:46 12,1 C 11,1 C 10,6 C 95 % 15 lf 1020,3 hPa 0,0 l/m 0 min 0 min 0 W/m 10,5 km/h (2 Bft) 95,74 %
06.08.2017 04:48 12,1 C 11,1 C 10,6 C 95 % 15 lf 1020,3 hPa 0,0 l/m 0 min 0 min 0 W/m 8,4 km/h (2 Bft) 97,87 %
06.08.2017 04:50 12,1 C 11,1 C 10,6 C 95 % 15 lf 1020,3 hPa 0,0 l/m 0 min 0 min 0 W/m 8,4 km/h (2 Bft) 95,74 %
06.08.2017 04:52 12,1 C 11,1 C 10,6 C 95 % 15 lf 1020,4 hPa 0,0 l/m 0 min 0 min 0 W/m 8,4 km/h (2 Bft) 95,74 %
06.08.2017 04:54 12,1 C 11,1 C 10,6 C 95 % 15 lf 1020,3 hPa 0,0 l/m 0 min 0 min 2 W/m 10,5 km/h (2 Bft) 95,74 %
06.08.2017 04:56 12,1 C 11,1 C 10,6 C 95 % 15 lf 1020,4 hPa 0,0 l/m 0 min 0 min 2 W/m 10,5 km/h (2 Bft) 97,83 %
06.08.2017 04:58 12,1 C 11,1 C 10,6 C 95 % 15 lf 1020,3 hPa 0,0 l/m 0 min 0 min 2 W/m 10,5 km/h (2 Bft) 95,74 %
06.08.2017 05:00 12,1 C 11,1 C 10,6 C 95 % 15 lf 1020,3 hPa 0,0 l/m 0 min 0 min 5 W/m 8,4 km/h (2 Bft) 100,00 %
06.08.2017 05:02 12,1 C 11,1 C 10,6 C 95 % 15 lf 1020,3 hPa 0,0 l/m 0 min 0 min 3 W/m 8,4 km/h (2 Bft) 100,00 %
06.08.2017 05:04 12,1 C 11,1 C 10,6 C 96 % 15 lf 1020,4 hPa 0,0 l/m 0 min 0 min 2 W/m 6,3 km/h (2 Bft) 100,00 %
06.08.2017 05:06 12,1 C 11,1 C 10,0 C 96 % 15 lf 1020,4 hPa 0,0 l/m 0 min 0 min 5 W/m 8,4 km/h (2 Bft) 100,00 %
06.08.2017 05:08 12,1 C 11,1 C 10,6 C 96 % 15 lf 1020,4 hPa 0,0 l/m 0 min 0 min 0 W/m 6,3 km/h (2 Bft) 100,00 %
06.08.2017 05:10 12,0 C 11,1 C 10,0 C 96 % 15 lf 1020,4 hPa 0,0 l/m 0 min 0 min 5 W/m 8,4 km/h (2 Bft) 100,00 %
06.08.2017 05:12 12,1 C 11,1 C 10,6 C 96 % 15 lf 1020,4 hPa 0,0 l/m 0 min 0 min 5 W/m 8,4 km/h (2 Bft) 100,00 %
06.08.2017 05:14 12,0 C 11,1 C 10,0 C 96 % 15 lf 1020,4 hPa 0,0 l/m 0 min 0 min 5 W/m 6,3 km/h (2 Bft) 97,87 %
06.08.2017 05:16 12,0 C 11,1 C 10,0 C 96 % 15 lf 1020,4 hPa 0,0 l/m 0 min 0 min 5 W/m 6,3 km/h (2 Bft) 100,00 %
06.08.2017 05:18 12,0 C 11,1 C 10,6 C 96 % 15 lf 1020,4 hPa 0,0 l/m 0 min 0 min 5 W/m 8,4 km/h (2 Bft) 97,87 %
06.08.2017 05:20 12,0 C 11,1 C 10,0 C 96 % 15 lf 1020,4 hPa 0,0 l/m 0 min 0 min 0 W/m 6,3 km/h (2 Bft) 97,83 %
06.08.2017 05:22 12,0 C 11,1 C 10,0 C 96 % 15 lf 1020,4 hPa 0,0 l/m 0 min 0 min 5 W/m 8,4 km/h (2 Bft) 100,00 %
06.08.2017 05:24 12,0 C 11,1 C 10,0 C 96 % 15 lf 1020,4 hPa 0,0 l/m 0 min 0 min 5 W/m 8,4 km/h (2 Bft) 97,87 %
06.08.2017 05:26 12,0 C 10,6 C 10,0 C 96 % 15 lf 1020,4 hPa 0,0 l/m 0 min 0 min 5 W/m 4,2 km/h (1 Bft) 95,74 %
06.08.2017 05:28 11,9 C 10,6 C 10,0 C 96 % 15 lf 1020,4 hPa 0,0 l/m 0 min 0 min 4 W/m 4,2 km/h (1 Bft) 95,74 %
06.08.2017 05:30 11,9 C 10,6 C 10,0 C 96 % 15 lf 1020,4 hPa 0,0 l/m 0 min 0 min 3 W/m 6,3 km/h (2 Bft) 97,87 %
06.08.2017 05:32 11,9 C 10,6 C 10,0 C 96 % 15 lf 1020,4 hPa 0,0 l/m 0 min 0 min 5 W/m 6,3 km/h (2 Bft) 97,83 %
06.08.2017 05:34 11,9 C 10,6 C 10,0 C 96 % 15 lf 1020,4 hPa 0,0 l/m 0 min 0 min 5 W/m 4,2 km/h (1 Bft) 95,74 %
06.08.2017 05:36 11,9 C 10,6 C 10,0 C 96 % 15 lf 1020,5 hPa 0,0 l/m 0 min 0 min 5 W/m 6,3 km/h (2 Bft) 97,87 %
06.08.2017 05:38 11,9 C 10,6 C 10,0 C 96 % 15 lf 1020,5 hPa 0,0 l/m 0 min 0 min 3 W/m 6,3 km/h (2 Bft) 95,74 %
06.08.2017 05:40 11,9 C 10,6 C 10,0 C 96 % 15 lf 1020,5 hPa 0,0 l/m 0 min 0 min 0 W/m 8,4 km/h (2 Bft) 97,87 %
06.08.2017 05:42 11,9 C 11,1 C 10,0 C 96 % 15 lf 1020,5 hPa 0,0 l/m 0 min 0 min 0 W/m 8,4 km/h (2 Bft) 97,87 %
06.08.2017 05:44 11,9 C 11,1 C 10,0 C 96 % 15 lf 1020,5 hPa 0,0 l/m 0 min 0 min 0 W/m 6,3 km/h (2 Bft) 97,83 %
06.08.2017 05:46 11,8 C 10,6 C 10,0 C 96 % 15 lf 1020,5 hPa 0,0 l/m 0 min 0 min 0 W/m 6,3 km/h (2 Bft) 97,87 %
06.08.2017 05:48 11,8 C 10,6 C 10,0 C 96 % 15 lf 1020,5 hPa 0,0 l/m 0 min 0 min 0 W/m 6,3 km/h (2 Bft) 95,74 %
06.08.2017 05:50 11,8 C 10,6 C 10,0 C 96 % 15 lf 1020,5 hPa 0,0 l/m 0 min 0 min 4 W/m 6,3 km/h (2 Bft) 95,74 %
06.08.2017 05:52 11,8 C 10,6 C 10,0 C 96 % 15 lf 1020,6 hPa 0,0 l/m 0 min 0 min 5 W/m 6,3 km/h (2 Bft) 95,74 %
06.08.2017 05:54 11,8 C 10,6 C 10,0 C 96 % 15 lf 1020,6 hPa 0,0 l/m 0 min 0 min 5 W/m 6,3 km/h (2 Bft) 95,65 %
06.08.2017 05:56 11,8 C 10,6 C 10,0 C 96 % 15 lf 1020,6 hPa 0,0 l/m 0 min 0 min 5 W/m 8,4 km/h (2 Bft) 97,87 %
06.08.2017 05:58 11,8 C 10,6 C 10,0 C 96 % 15 lf 1020,6 hPa 0,0 l/m 0 min 0 min 5 W/m 8,4 km/h (2 Bft) 95,74 %
06.08.2017 06:00 11,8 C 10,6 C 10,0 C 96 % 15 lf 1020,5 hPa 0,0 l/m 0 min 0 min 5 W/m 8,4 km/h (2 Bft) 100,00 %
06.08.2017 06:02 11,8 C 10,6 C 10,0 C 96 % 15 lf 1020,6 hPa 0,0 l/m 0 min 0 min 6 W/m 6,3 km/h (2 Bft) 97,87 %
06.08.2017 06:04 11,8 C 10,6 C 10,0 C 96 % 15 lf 1020,6 hPa 0,0 l/m 0 min 0 min 7 W/m 6,3 km/h (2 Bft) 97,87 %
06.08.2017 06:06 11,7 C 10,6 C 10,0 C 96 % 15 lf 1020,6 hPa 0,0 l/m 0 min 0 min 7 W/m 6,3 km/h (2 Bft) 97,83 %
06.08.2017 06:10 11,7 C 10,6 C 10,0 C 96 % 15 lf 1020,6 hPa 0,0 l/m 0 min 0 min 8 W/m 8,4 km/h (2 Bft) 95,29 %
06.08.2017 06:12 11,7 C 10,6 C 10,0 C 96 % 15 lf 1020,6 hPa 0,0 l/m 0 min 0 min 9 W/m 8,4 km/h (2 Bft) 97,87 %
06.08.2017 06:14 11,7 C 10,6 C 10,0 C 96 % 15 lf 1020,6 hPa 0,0 l/m 0 min 0 min 10 W/m 8,4 km/h (2 Bft) 95,74 %
06.08.2017 06:16 11,7 C 10,6 C 10,0 C 96 % 15 lf 1020,7 hPa 0,0 l/m 0 min 0 min 11 W/m 6,3 km/h (2 Bft) 97,87 %
06.08.2017 06:18 11,7 C 10,6 C 10,0 C 96 % 15 lf 1020,7 hPa 0,0 l/m 0 min 2 min 12 W/m 8,4 km/h (2 Bft) 97,87 %
06.08.2017 06:20 11,7 C 10,6 C 10,0 C 96 % 15 lf 1020,7 hPa 0,0 l/m 0 min 0 min 12 W/m 10,5 km/h (2 Bft) 98,36 %
06.08.2017 06:22 11,7 C 11,1 C 10,0 C 96 % 15 lf 1020,7 hPa 0,0 l/m 0 min 0 min 14 W/m 10,5 km/h (2 Bft) 95,65 %
06.08.2017 06:24 11,7 C 11,1 C 10,0 C 96 % 15 lf 1020,7 hPa 0,0 l/m 0 min 0 min 15 W/m 10,5 km/h (2 Bft) 96,61 %
06.08.2017 06:26 11,7 C 11,1 C 10,0 C 96 % 15 lf 1020,7 hPa 0,0 l/m 0 min 0 min 16 W/m 6,3 km/h (2 Bft) 97,87 %
06.08.2017 06:28 11,7 C 11,1 C 10,0 C 96 % 15 lf 1020,8 hPa 0,0 l/m 0 min 0 min 19 W/m 8,4 km/h (2 Bft) 95,74 %
06.08.2017 06:30 11,7 C 11,1 C 10,0 C 96 % 15 lf 1020,7 hPa 0,0 l/m 2 min 0 min 21 W/m 8,4 km/h (2 Bft) 95,74 %
06.08.2017 06:32 11,7 C 11,1 C 10,0 C 96 % 15 lf 1020,8 hPa 0,0 l/m 0 min 0 min 23 W/m 6,3 km/h (2 Bft) 95,65 %
06.08.2017 06:34 11,7 C 11,1 C 10,0 C 96 % 15 lf 1020,8 hPa 0,0 l/m 0 min 0 min 21 W/m 6,3 km/h (2 Bft) 97,87 %
06.08.2017 06:36 11,6 C 11,1 C 10,0 C 96 % 15 lf 1020,9 hPa 0,0 l/m 0 min 0 min 23 W/m 10,5 km/h (2 Bft) 97,87 %
06.08.2017 06:38 11,6 C 11,1 C 10,0 C 96 % 15 lf 1020,9 hPa 0,0 l/m 0 min 0 min 27 W/m 6,3 km/h (2 Bft) 95,74 %
06.08.2017 06:40 11,6 C 10,6 C 10,0 C 96 % 15 lf 1020,9 hPa 0,0 l/m 0 min 0 min 32 W/m 6,3 km/h (2 Bft) 97,87 %
06.08.2017 06:42 11,6 C 11,1 C 10,0 C 96 % 15 lf 1020,9 hPa 0,0 l/m 0 min 0 min 30 W/m 6,3 km/h (2 Bft) 97,83 %
06.08.2017 06:44 11,6 C 11,1 C 10,0 C 96 % 15 lf 1020,9 hPa 0,0 l/m 0 min 0 min 28 W/m 6,3 km/h (2 Bft) 95,74 %
06.08.2017 06:46 11,6 C 11,1 C 10,0 C 96 % 15 lf 1020,9 hPa 0,0 l/m 0 min 0 min 35 W/m 8,4 km/h (2 Bft) 100,00 %
06.08.2017 06:48 11,6 C 10,6 C 10,0 C 96 % 15 lf 1020,9 hPa 0,0 l/m 0 min 0 min 42 W/m 6,3 km/h (2 Bft) 97,87 %
06.08.2017 06:50 11,6 C 11,1 C 10,0 C 96 % 15 lf 1020,9 hPa 0,0 l/m 2 min 0 min 47 W/m 6,3 km/h (2 Bft) 97,87 %
06.08.2017 06:52 11,6 C 11,1 C 10,0 C 96 % 15 lf 1021,0 hPa 0,0 l/m 2 min 0 min 51 W/m 6,3 km/h (2 Bft) 100,00 %
06.08.2017 06:54 11,6 C 11,1 C 10,0 C 96 % 15 lf 1021,0 hPa 0,0 l/m 2 min 0 min 53 W/m 6,3 km/h (2 Bft) 97,83 %
06.08.2017 06:56 11,6 C 11,1 C 10,0 C 97 % 15 lf 1021,0 hPa 0,0 l/m 2 min 0 min 59 W/m 8,4 km/h (2 Bft) 100,00 %
06.08.2017 06:58 11,6 C 11,1 C 10,0 C 97 % 15 lf 1021,1 hPa 0,0 l/m 2 min 0 min 62 W/m 6,3 km/h (2 Bft) 95,74 %
06.08.2017 07:00 11,6 C 11,1 C 10,6 C 97 % 15 lf 1021,1 hPa 0,0 l/m 2 min 0 min 66 W/m 6,3 km/h (2 Bft) 95,74 %
06.08.2017 07:02 11,6 C 11,1 C 10,6 C 97 % 15 lf 1021,0 hPa 0,0 l/m 2 min 0 min 70 W/m 8,4 km/h (2 Bft) 95,74 %
06.08.2017 07:04 11,6 C 11,1 C 10,6 C 97 % 15 lf 1021,1 hPa 0,0 l/m 2 min 0 min 76 W/m 8,4 km/h (2 Bft) 97,87 %
06.08.2017 07:06 11,6 C 11,1 C 10,6 C 97 % 15 lf 1021,2 hPa 0,0 l/m 2 min 0 min 79 W/m 10,5 km/h (2 Bft) 93,48 %
06.08.2017 07:08 11,6 C 11,1 C 10,6 C 97 % 15 lf 1021,2 hPa 0,0 l/m 2 min 0 min 83 W/m 6,3 km/h (2 Bft) 95,74 %
06.08.2017 07:10 11,7 C 11,1 C 10,6 C 97 % 15 lf 1021,1 hPa 0,0 l/m 2 min 0 min 88 W/m 8,4 km/h (2 Bft) 97,87 %
06.08.2017 07:12 11,7 C 11,1 C 10,6 C 97 % 15 lf 1021,1 hPa 0,0 l/m 2 min 0 min 92 W/m 8,4 km/h (2 Bft) 97,87 %
06.08.2017 07:14 11,7 C 11,7 C 10,6 C 97 % 15 lf 1021,2 hPa 0,0 l/m 2 min 0 min 98 W/m 6,3 km/h (2 Bft) 95,74 %
06.08.2017 07:16 11,7 C 11,7 C 10,6 C 97 % 15 lf 1021,2 hPa 0,0 l/m 2 min 0 min 102 W/m 6,3 km/h (2 Bft) 95,74 %
06.08.2017 07:18 11,7 C 11,7 C 10,6 C 97 % 15 lf 1021,2 hPa 0,0 l/m 2 min 0 min 107 W/m 8,4 km/h (2 Bft) 93,48 %
06.08.2017 07:20 11,7 C 11,7 C 10,6 C 97 % 15 lf 1021,2 hPa 0,0 l/m 2 min 0 min 113 W/m 8,4 km/h (2 Bft) 95,74 %
06.08.2017 07:22 11,7 C 11,7 C 10,6 C 97 % 15 lf 1021,2 hPa 0,0 l/m 2 min 0 min 119 W/m 8,4 km/h (2 Bft) 95,74 %
06.08.2017 07:24 11,8 C 11,7 C 10,6 C 97 % 15 lf 1021,2 hPa 0,0 l/m 2 min 0 min 124 W/m 12,6 km/h (3 Bft) 97,87 %
06.08.2017 07:26 11,8 C 11,7 C 10,6 C 97 % 15 lf 1021,3 hPa 0,0 l/m 2 min 0 min 127 W/m 8,4 km/h (2 Bft) 93,62 %
06.08.2017 07:28 11,8 C 11,7 C 10,6 C 97 % 15 lf 1021,3 hPa 0,0 l/m 2 min 0 min 134 W/m 10,5 km/h (2 Bft) 93,62 %
06.08.2017 07:30 11,9 C 11,7 C 10,6 C 97 % 15 lf 1021,3 hPa 0,0 l/m 2 min 0 min 135 W/m 8,4 km/h (2 Bft) 89,13 %
06.08.2017 07:32 11,9 C 11,7 C 10,6 C 97 % 15 lf 1021,3 hPa 0,0 l/m 2 min 0 min 144 W/m 10,5 km/h (2 Bft) 93,62 %
06.08.2017 07:34 11,9 C 11,7 C 10,6 C 97 % 15 lf 1021,4 hPa 0,0 l/m 2 min 0 min 151 W/m 8,4 km/h (2 Bft) 93,62 %
06.08.2017 07:36 11,9 C 11,7 C 11,1 C 97 % 15 lf 1021,4 hPa 0,0 l/m 2 min 0 min 155 W/m 10,5 km/h (2 Bft) 93,62 %
06.08.2017 07:38 12,0 C 11,7 C 11,1 C 97 % 15 lf 1021,4 hPa 0,0 l/m 2 min 0 min 163 W/m 10,5 km/h (2 Bft) 95,74 %
06.08.2017 07:40 12,1 C 11,7 C 11,1 C 97 % 15 lf 1021,4 hPa 0,0 l/m 2 min 0 min 166 W/m 12,6 km/h (3 Bft) 91,49 %
06.08.2017 07:42 12,1 C 12,2 C 11,1 C 97 % 15 lf 1021,4 hPa 0,0 l/m 2 min 0 min 176 W/m 8,4 km/h (2 Bft) 93,48 %
06.08.2017 07:44 12,1 C 12,2 C 11,1 C 97 % 15 lf 1021,5 hPa 0,0 l/m 2 min 0 min 179 W/m 10,5 km/h (2 Bft) 89,36 %
06.08.2017 07:46 12,1 C 12,2 C 11,1 C 97 % 15 lf 1021,5 hPa 0,0 l/m 2 min 0 min 185 W/m 12,6 km/h (3 Bft) 93,62 %
06.08.2017 07:48 12,2 C 12,2 C 11,1 C 97 % 15 lf 1021,5 hPa 0,0 l/m 2 min 0 min 191 W/m 10,5 km/h (2 Bft) 95,74 %
06.08.2017 07:50 12,2 C 12,2 C 11,1 C 97 % 15 lf 1021,5 hPa 0,0 l/m 2 min 0 min 196 W/m 12,6 km/h (3 Bft) 95,74 %
06.08.2017 07:52 12,3 C 12,2 C 11,1 C 97 % 15 lf 1021,5 hPa 0,0 l/m 2 min 0 min 203 W/m 14,6 km/h (3 Bft) 97,87 %
06.08.2017 07:54 12,3 C 12,2 C 11,1 C 98 % 15 lf 1021,5 hPa 0,0 l/m 2 min 0 min 208 W/m 14,6 km/h (3 Bft) 97,83 %
06.08.2017 07:56 12,3 C 12,2 C 11,1 C 98 % 15 lf 1021,6 hPa 0,0 l/m 2 min 0 min 213 W/m 10,5 km/h (2 Bft) 100,00 %
06.08.2017 07:58 12,4 C 12,2 C 11,1 C 98 % 15 lf 1021,6 hPa 0,0 l/m 2 min 0 min 220 W/m 12,6 km/h (3 Bft) 95,74 %
06.08.2017 08:00 12,4 C 12,2 C 11,7 C 98 % 15 lf 1021,6 hPa 0,0 l/m 2 min 0 min 225 W/m 10,5 km/h (2 Bft) 97,87 %
06.08.2017 08:02 12,4 C 12,2 C 11,7 C 98 % 15 lf 1021,7 hPa 0,0 l/m 2 min 0 min 231 W/m 10,5 km/h (2 Bft) 95,74 %
06.08.2017 08:04 12,5 C 12,2 C 11,7 C 97 % 15 lf 1021,7 hPa 0,0 l/m 2 min 0 min 236 W/m 12,6 km/h (3 Bft) 97,83 %
06.08.2017 08:06 12,5 C 12,2 C 11,7 C 97 % 15 lf 1021,8 hPa 0,0 l/m 2 min 0 min 240 W/m 10,5 km/h (2 Bft) 95,74 %
06.08.2017 08:08 12,6 C 12,8 C 11,7 C 97 % 15 lf 1021,8 hPa 0,0 l/m 2 min 0 min 247 W/m 8,4 km/h (2 Bft) 97,87 %
06.08.2017 08:10 12,6 C 12,8 C 11,7 C 98 % 15 lf 1021,7 hPa 0,0 l/m 2 min 0 min 252 W/m 10,5 km/h (2 Bft) 97,87 %
06.08.2017 08:12 12,6 C 12,8 C 11,7 C 98 % 15 lf 1021,8 hPa 0,0 l/m 2 min 0 min 260 W/m 12,6 km/h (3 Bft) 97,87 %
06.08.2017 08:14 12,7 C 12,8 C 11,7 C 98 % 15 lf 1021,8 hPa 0,0 l/m 2 min 0 min 267 W/m 12,6 km/h (3 Bft) 97,87 %
06.08.2017 08:16 12,7 C 13,3 C 11,7 C 98 % 15 lf 1021,8 hPa 0,0 l/m 2 min 0 min 273 W/m 10,5 km/h (2 Bft) 97,83 %
06.08.2017 08:18 12,7 C 13,3 C 11,7 C 98 % 15 lf 1021,8 hPa 0,0 l/m 2 min 0 min 278 W/m 8,4 km/h (2 Bft) 97,87 %
06.08.2017 08:20 12,8 C 13,3 C 11,7 C 98 % 15 lf 1022,0 hPa 0,0 l/m 2 min 0 min 285 W/m 12,6 km/h (3 Bft) 95,74 %
06.08.2017 08:22 12,8 C 13,3 C 11,7 C 98 % 15 lf 1021,9 hPa 0,0 l/m 2 min 0 min 290 W/m 10,5 km/h (2 Bft) 97,87 %
06.08.2017 08:24 12,8 C 13,3 C 11,7 C 98 % 15 lf 1022,0 hPa 0,0 l/m 2 min 0 min 298 W/m 10,5 km/h (2 Bft) 93,62 %
06.08.2017 08:26 12,9 C 13,9 C 11,7 C 98 % 15 lf 1022,0 hPa 0,0 l/m 2 min 0 min 300 W/m 12,6 km/h (3 Bft) 97,87 %
06.08.2017 08:28 12,9 C 13,9 C 11,7 C 98 % 15 lf 1022,0 hPa 0,0 l/m 2 min 0 min 305 W/m 12,6 km/h (3 Bft) 95,65 %
06.08.2017 08:30 13,0 C 13,9 C 11,7 C 98 % 15 lf 1022,0 hPa 0,0 l/m 2 min 0 min 313 W/m 14,6 km/h (3 Bft) 97,87 %
06.08.2017 08:32 13,0 C 13,9 C 11,7 C 98 % 15 lf 1022,0 hPa 0,0 l/m 2 min 0 min 318 W/m 10,5 km/h (2 Bft) 100,00 %
06.08.2017 08:34 13,1 C 13,9 C 12,2 C 98 % 15 lf 1022,0 hPa 0,0 l/m 2 min 0 min 327 W/m 10,5 km/h (2 Bft) 100,00 %
06.08.2017 08:36 13,1 C 14,4 C 12,2 C 98 % 15 lf 1022,1 hPa 0,0 l/m 2 min 0 min 330 W/m 10,5 km/h (2 Bft) 100,00 %
06.08.2017 08:38 13,2 C 14,4 C 12,2 C 98 % 15 lf 1022,0 hPa 0,0 l/m 2 min 0 min 336 W/m 8,4 km/h (2 Bft) 100,00 %
06.08.2017 08:40 13,2 C 15,6 C 12,2 C 98 % 15 lf 1022,0 hPa 0,0 l/m 2 min 0 min 344 W/m 8,4 km/h (2 Bft) 97,83 %
06.08.2017 08:42 13,3 C 17,8 C 12,2 C 98 % 15 lf 1022,1 hPa 0,0 l/m 2 min 0 min 351 W/m 8,4 km/h (2 Bft) 100,00 %
06.08.2017 08:44 13,3 C 18,9 C 12,2 C 98 % 15 lf 1022,2 hPa 0,0 l/m 2 min 0 min 354 W/m 10,5 km/h (2 Bft) 100,00 %
06.08.2017 08:46 13,4 C 20,6 C 12,2 C 98 % 15 lf 1022,2 hPa 0,0 l/m 2 min 0 min 358 W/m 12,6 km/h (3 Bft) 95,74 %
06.08.2017 08:48 13,5 C 21,1 C 12,8 C 98 % 15 lf 1022,2 hPa 0,0 l/m 2 min 0 min 366 W/m 10,5 km/h (2 Bft) 95,74 %
06.08.2017 08:50 13,6 C 22,8 C 12,8 C 98 % 15 lf 1022,2 hPa 0,0 l/m 2 min 0 min 372 W/m 8,4 km/h (2 Bft) 95,74 %
06.08.2017 08:52 13,6 C 23,3 C 12,8 C 98 % 15 lf 1022,2 hPa 0,0 l/m 2 min 0 min 378 W/m 6,3 km/h (2 Bft) 97,83 %
06.08.2017 08:54 13,7 C 23,3 C 12,8 C 98 % 14 lf 1022,3 hPa 0,0 l/m 2 min 0 min 383 W/m 10,5 km/h (2 Bft) 95,74 %
06.08.2017 08:56 13,8 C 23,9 C 13,3 C 98 % 12 lf 1022,2 hPa 0,0 l/m 2 min 0 min 390 W/m 12,6 km/h (3 Bft) 97,87 %
06.08.2017 08:58 13,9 C 24,4 C 13,3 C 98 % 9 lf 1022,2 hPa 0,0 l/m 2 min 0 min 397 W/m 8,4 km/h (2 Bft) 95,74 %
06.08.2017 09:00 14,1 C 23,3 C 13,3 C 98 % 4 lf 1022,3 hPa 0,0 l/m 2 min 0 min 402 W/m 10,5 km/h (2 Bft) 95,74 %
06.08.2017 09:02 14,2 C 23,9 C 13,3 C 98 % 1 lf 1022,4 hPa 0,0 l/m 2 min 0 min 407 W/m 10,5 km/h (2 Bft) 97,87 %
06.08.2017 09:04 14,2 C 23,9 C 13,9 C 98 % 0 lf 1022,4 hPa 0,0 l/m 2 min 0 min 413 W/m 12,6 km/h (3 Bft) 97,83 %
06.08.2017 09:06 14,3 C 23,3 C 13,9 C 98 % 0 lf 1022,4 hPa 0,0 l/m 2 min 0 min 418 W/m 10,5 km/h (2 Bft) 93,62 %
06.08.2017 09:08 14,4 C 24,4 C 13,9 C 98 % 0 lf 1022,4 hPa 0,0 l/m 2 min 0 min 423 W/m 8,4 km/h (2 Bft) 95,74 %
06.08.2017 09:10 14,6 C 25,0 C 13,9 C 98 % 0 lf 1022,4 hPa 0,0 l/m 2 min 0 min 428 W/m 8,4 km/h (2 Bft) 97,87 %
06.08.2017 09:12 14,7 C 25,0 C 13,9 C 98 % 0 lf 1022,4 hPa 0,0 l/m 2 min 0 min 435 W/m 8,4 km/h (2 Bft) 95,74 %
06.08.2017 09:14 14,8 C 25,0 C 13,9 C 98 % 0 lf 1022,4 hPa 0,0 l/m 2 min 0 min 439 W/m 14,6 km/h (3 Bft) 95,65 %
06.08.2017 09:16 14,9 C 25,6 C 13,9 C 98 % 0 lf 1022,4 hPa 0,0 l/m 2 min 0 min 441 W/m 14,6 km/h (3 Bft) 97,87 %
06.08.2017 09:18 15,0 C 25,6 C 14,4 C 98 % 0 lf 1022,5 hPa 0,0 l/m 2 min 0 min 445 W/m 14,6 km/h (3 Bft) 97,87 %
06.08.2017 09:20 15,1 C 26,7 C 14,4 C 98 % 0 lf 1022,5 hPa 0,0 l/m 2 min 0 min 455 W/m 10,5 km/h (2 Bft) 97,87 %
06.08.2017 09:22 15,2 C 25,6 C 14,4 C 98 % 0 lf 1022,5 hPa 0,0 l/m 2 min 0 min 462 W/m 12,6 km/h (3 Bft) 93,62 %
06.08.2017 09:24 15,4 C 26,1 C 14,4 C 98 % 0 lf 1022,5 hPa 0,0 l/m 2 min 0 min 468 W/m 10,5 km/h (2 Bft) 95,74 %
06.08.2017 09:26 15,5 C 26,1 C 15,0 C 98 % 0 lf 1022,5 hPa 0,0 l/m 2 min 0 min 474 W/m 12,6 km/h (3 Bft) 95,65 %
06.08.2017 09:28 15,6 C 26,7 C 15,0 C 98 % 0 lf 1022,5 hPa 0,0 l/m 2 min 0 min 474 W/m 12,6 km/h (3 Bft) 95,74 %
06.08.2017 09:30 15,7 C 27,8 C 15,0 C 98 % 0 lf 1022,5 hPa 0,0 l/m 2 min 0 min 482 W/m 10,5 km/h (2 Bft) 95,74 %
06.08.2017 09:32 15,8 C 27,2 C 15,0 C 97 % 0 lf 1022,5 hPa 0,0 l/m 2 min 0 min 492 W/m 10,5 km/h (2 Bft) 92,00 %
06.08.2017 09:34 16,0 C 25,6 C 15,0 C 97 % 0 lf 1022,6 hPa 0,0 l/m 2 min 0 min 490 W/m 12,6 km/h (3 Bft) 91,49 %
06.08.2017 09:37 16,2 C 26,1 C 15,0 C 97 % 0 lf 1022,6 hPa 0,0 l/m 3 min 0 min 503 W/m 14,6 km/h (3 Bft) 96,05 %
06.08.2017 09:38 16,3 C 26,7 C 15,6 C 96 % 0 lf 1022,6 hPa 0,0 l/m 1 min 0 min 512 W/m 12,6 km/h (3 Bft) 95,65 %
06.08.2017 09:40 16,4 C 25,6 C 16,1 C 96 % 0 lf 1022,5 hPa 0,0 l/m 2 min 0 min 512 W/m 12,6 km/h (3 Bft) 95,74 %
06.08.2017 09:42 16,6 C 26,7 C 17,2 C 94 % 0 lf 1022,6 hPa 0,0 l/m 2 min 0 min 517 W/m 14,6 km/h (3 Bft) 97,87 %
06.08.2017 09:44 16,7 C 25,6 C 17,2 C 94 % 0 lf 1022,5 hPa 0,0 l/m 2 min 0 min 524 W/m 14,6 km/h (3 Bft) 97,87 %
06.08.2017 09:46 16,8 C 25,6 C 17,8 C 93 % 0 lf 1022,5 hPa 0,0 l/m 2 min 0 min 491 W/m 14,6 km/h (3 Bft) 97,87 %
06.08.2017 09:48 16,9 C 25,0 C 18,3 C 91 % 0 lf 1022,5 hPa 0,0 l/m 2 min 0 min 541 W/m 16,7 km/h (3 Bft) 95,65 %
06.08.2017 09:50 17,0 C 25,0 C 18,9 C 90 % 0 lf 1022,5 hPa 0,0 l/m 2 min 0 min 582 W/m 12,6 km/h (3 Bft) 93,62 %
06.08.2017 09:52 17,1 C 24,4 C 20,0 C 89 % 0 lf 1022,6 hPa 0,0 l/m 2 min 0 min 587 W/m 12,6 km/h (3 Bft) 97,87 %
06.08.2017 09:54 17,2 C 22,8 C 18,3 C 88 % 0 lf 1022,6 hPa 0,0 l/m 0 min 0 min 246 W/m 12,6 km/h (3 Bft) 93,62 %
06.08.2017 09:56 17,3 C 25,0 C 19,4 C 88 % 0 lf 1022,6 hPa 0,0 l/m 2 min 0 min 494 W/m 10,5 km/h (2 Bft) 93,62 %
06.08.2017 09:58 17,4 C 26,1 C 20,6 C 87 % 0 lf 1022,5 hPa 0,0 l/m 2 min 0 min 573 W/m 10,5 km/h (2 Bft) 95,74 %
06.08.2017 10:00 17,4 C 26,1 C 22,2 C 86 % 0 lf 1022,5 hPa 0,0 l/m 2 min 0 min 600 W/m 8,4 km/h (2 Bft) 97,83 %
06.08.2017 10:02 17,6 C 25,0 C 21,1 C 86 % 0 lf 1022,5 hPa 0,0 l/m 2 min 0 min 610 W/m 12,6 km/h (3 Bft) 97,87 %
06.08.2017 10:06 17,7 C 22,8 C 20,6 C 85 % 0 lf 1022,6 hPa 0,0 l/m 0 min 0 min 271 W/m 6,3 km/h (2 Bft) 95,65 %
06.08.2017 10:08 17,8 C 23,9 C 20,6 C 84 % 0 lf 1022,6 hPa 0,0 l/m 0 min 0 min 196 W/m 4,2 km/h (1 Bft) 96,30 %
06.08.2017 10:10 17,9 C 24,4 C 20,6 C 84 % 0 lf 1022,6 hPa 0,0 l/m 2 min 0 min 462 W/m 10,5 km/h (2 Bft) 97,37 %
06.08.2017 10:12 17,9 C 23,9 C 20,0 C 84 % 0 lf 1022,7 hPa 0,0 l/m 0 min 0 min 258 W/m 10,5 km/h (2 Bft) 97,92 %
06.08.2017 10:14 17,9 C 23,3 C 20,0 C 83 % 0 lf 1022,7 hPa 0,0 l/m 2 min 0 min 577 W/m 10,5 km/h (2 Bft) 97,87 %
06.08.2017 10:16 18,0 C 21,1 C 18,3 C 83 % 0 lf 1022,7 hPa 0,0 l/m 0 min 0 min 156 W/m 12,6 km/h (3 Bft) 98,15 %
06.08.2017 10:18 18,0 C 22,2 C 19,4 C 82 % 0 lf 1022,8 hPa 0,0 l/m 0 min 0 min 211 W/m 10,5 km/h (2 Bft) 95,74 %
06.08.2017 10:20 18,0 C 23,3 C 20,0 C 81 % 0 lf 1022,7 hPa 0,0 l/m 0 min 0 min 214 W/m 14,6 km/h (3 Bft) 97,37 %
06.08.2017 10:22 18,0 C 22,8 C 19,4 C 81 % 0 lf 1022,6 hPa 0,0 l/m 0 min 0 min 212 W/m 12,6 km/h (3 Bft) 95,74 %
06.08.2017 10:24 18,0 C 20,6 C 18,3 C 81 % 0 lf 1022,6 hPa 0,0 l/m 0 min 0 min 165 W/m 10,5 km/h (2 Bft) 97,87 %
06.08.2017 10:26 17,9 C 20,6 C 17,8 C 80 % 0 lf 1022,6 hPa 0,0 l/m 0 min 0 min 142 W/m 12,6 km/h (3 Bft) 93,62 %
06.08.2017 10:28 17,9 C 23,3 C 18,9 C 80 % 0 lf 1022,7 hPa 0,0 l/m 0 min 0 min 279 W/m 12,6 km/h (3 Bft) 95,83 %
06.08.2017 10:30 18,0 C 25,0 C 20,6 C 81 % 0 lf 1022,7 hPa 0,0 l/m 2 min 0 min 721 W/m 8,4 km/h (2 Bft) 95,74 %
06.08.2017 10:32 18,0 C 23,9 C 20,0 C 81 % 0 lf 1022,8 hPa 0,0 l/m 0 min 0 min 208 W/m 10,5 km/h (2 Bft) 97,87 %
06.08.2017 10:34 18,0 C 22,8 C 18,9 C 80 % 0 lf 1022,8 hPa 0,0 l/m 0 min 0 min 151 W/m 12,6 km/h (3 Bft) 95,74 %
06.08.2017 10:36 17,9 C 22,2 C 18,3 C 80 % 0 lf 1022,8 hPa 0,0 l/m 0 min 0 min 172 W/m 14,6 km/h (3 Bft) 97,83 %
06.08.2017 10:38 17,9 C 22,8 C 19,4 C 80 % 0 lf 1022,8 hPa 0,0 l/m 0 min 0 min 188 W/m 14,6 km/h (3 Bft) 98,18 %
06.08.2017 10:40 17,9 C 23,3 C 20,0 C 80 % 0 lf 1022,8 hPa 0,0 l/m 0 min 0 min 188 W/m 12,6 km/h (3 Bft) 97,37 %
06.08.2017 10:42 17,9 C 23,3 C 19,4 C 80 % 0 lf 1022,9 hPa 0,0 l/m 0 min 0 min 173 W/m 12,6 km/h (3 Bft) 93,75 %
06.08.2017 10:44 17,9 C 22,2 C 18,9 C 79 % 0 lf 1022,8 hPa 0,0 l/m 0 min 0 min 165 W/m 10,5 km/h (2 Bft) 97,87 %
06.08.2017 10:46 17,9 C 22,2 C 18,9 C 78 % 0 lf 1022,8 hPa 0,0 l/m 0 min 0 min 141 W/m 10,5 km/h (2 Bft) 97,87 %
06.08.2017 10:48 17,9 C 23,3 C 20,0 C 78 % 0 lf 1022,8 hPa 0,0 l/m 0 min 0 min 171 W/m 10,5 km/h (2 Bft) 97,83 %
06.08.2017 10:50 17,9 C 22,2 C 18,9 C 78 % 0 lf 1022,9 hPa 0,0 l/m 0 min 0 min 169 W/m 16,7 km/h (3 Bft) 100,00 %
06.08.2017 10:52 17,9 C 23,3 C 20,6 C 78 % 0 lf 1022,9 hPa 0,0 l/m 0 min 0 min 204 W/m 12,6 km/h (3 Bft) 97,83 %
06.08.2017 10:54 17,9 C 22,8 C 19,4 C 78 % 0 lf 1022,9 hPa 0,0 l/m 0 min 0 min 172 W/m 12,6 km/h (3 Bft) 97,87 %
06.08.2017 10:56 17,9 C 24,4 C 20,6 C 77 % 0 lf 1022,9 hPa 0,0 l/m 0 min 0 min 259 W/m 12,6 km/h (3 Bft) 97,87 %
06.08.2017 10:58 18,0 C 26,7 C 23,3 C 78 % 0 lf 1022,8 hPa 0,0 l/m 2 min 0 min 773 W/m 10,5 km/h (2 Bft) 93,62 %
06.08.2017 11:00 18,1 C 25,6 C 22,8 C 78 % 0 lf 1022,9 hPa 0,0 l/m 2 min 0 min 801 W/m 16,7 km/h (3 Bft) 97,37 %
06.08.2017 11:02 18,2 C 25,6 C 22,8 C 77 % 0 lf 1022,9 hPa 0,0 l/m 2 min 0 min 802 W/m 16,7 km/h (3 Bft) 95,83 %
06.08.2017 11:04 18,3 C 26,1 C 23,9 C 76 % 0 lf 1022,9 hPa 0,0 l/m 2 min 0 min 804 W/m 12,6 km/h (3 Bft) 95,74 %
06.08.2017 11:06 18,5 C 27,8 C 25,0 C 77 % 0 lf 1023,0 hPa 0,0 l/m 2 min 0 min 720 W/m 8,4 km/h (2 Bft) 94,44 %
06.08.2017 11:08 18,6 C 28,3 C 25,6 C 76 % 0 lf 1023,0 hPa 0,0 l/m 2 min 0 min 723 W/m 14,6 km/h (3 Bft) 97,37 %
06.08.2017 11:10 18,8 C 28,9 C 26,1 C 75 % 0 lf 1023,0 hPa 0,0 l/m 2 min 0 min 726 W/m 14,6 km/h (3 Bft) 97,87 %
06.08.2017 11:12 19,0 C 30,0 C 26,7 C 75 % 0 lf 1023,0 hPa 0,0 l/m 2 min 0 min 729 W/m 12,6 km/h (3 Bft) 93,75 %
06.08.2017 11:14 19,2 C 28,3 C 26,1 C 75 % 0 lf 1023,0 hPa 0,0 l/m 2 min 0 min 733 W/m 12,6 km/h (3 Bft) 93,62 %
06.08.2017 11:16 19,3 C 27,8 C 23,9 C 73 % 0 lf 1023,0 hPa 0,0 l/m 2 min 0 min 736 W/m 18,8 km/h (3 Bft) 97,87 %
06.08.2017 11:18 19,4 C 25,0 C 21,7 C 72 % 0 lf 1023,0 hPa 0,0 l/m 2 min 0 min 739 W/m 14,6 km/h (3 Bft) 98,15 %
06.08.2017 11:20 19,4 C 23,9 C 20,6 C 70 % 0 lf 1023,0 hPa 0,0 l/m 2 min 0 min 775 W/m 10,5 km/h (2 Bft) 97,37 %
06.08.2017 11:22 19,4 C 25,0 C 20,0 C 70 % 0 lf 1022,9 hPa 0,0 l/m 2 min 0 min 766 W/m 14,6 km/h (3 Bft) 97,87 %
06.08.2017 11:24 19,4 C 25,6 C 20,6 C 71 % 0 lf 1022,9 hPa 0,0 l/m 2 min 0 min 748 W/m 6,3 km/h (2 Bft) 97,87 %
06.08.2017 11:26 19,5 C 24,4 C 20,0 C 71 % 0 lf 1022,9 hPa 0,0 l/m 2 min 0 min 926 W/m 12,6 km/h (3 Bft) 93,75 %
06.08.2017 11:28 19,5 C 26,1 C 21,1 C 72 % 0 lf 1023,0 hPa 0,0 l/m 2 min 0 min 881 W/m 12,6 km/h (3 Bft) 95,74 %
06.08.2017 11:30 19,6 C 27,2 C 23,3 C 72 % 0 lf 1023,0 hPa 0,0 l/m 2 min 0 min 757 W/m 12,6 km/h (3 Bft) 95,74 %
06.08.2017 11:32 19,6 C 25,0 C 23,3 C 71 % 0 lf 1023,0 hPa 0,0 l/m 2 min 0 min 760 W/m 14,6 km/h (3 Bft) 91,49 %
06.08.2017 11:34 19,6 C 25,6 C 23,9 C 71 % 0 lf 1023,0 hPa 0,0 l/m 2 min 0 min 763 W/m 12,6 km/h (3 Bft) 95,74 %
06.08.2017 11:36 19,7 C 27,2 C 25,6 C 71 % 0 lf 1023,0 hPa 0,0 l/m 2 min 0 min 766 W/m 10,5 km/h (2 Bft) 96,30 %
06.08.2017 11:38 19,8 C 30,0 C 26,7 C 72 % 0 lf 1022,9 hPa 0,0 l/m 2 min 0 min 769 W/m 10,5 km/h (2 Bft) 93,48 %
06.08.2017 11:40 19,9 C 30,6 C 27,2 C 72 % 0 lf 1023,0 hPa 0,0 l/m 2 min 0 min 771 W/m 16,7 km/h (3 Bft) 95,74 %
06.08.2017 11:42 20,1 C 29,4 C 26,1 C 71 % 0 lf 1023,0 hPa 0,0 l/m 2 min 0 min 774 W/m 14,6 km/h (3 Bft) 92,11 %
06.08.2017 11:44 20,1 C 26,1 C 25,0 C 69 % 0 lf 1023,0 hPa 0,0 l/m 2 min 0 min 777 W/m 16,7 km/h (3 Bft) 93,88 %
06.08.2017 11:46 20,2 C 27,2 C 25,0 C 69 % 0 lf 1022,9 hPa 0,0 l/m 2 min 0 min 779 W/m 16,7 km/h (3 Bft) 95,65 %
06.08.2017 11:48 20,2 C 28,3 C 26,1 C 69 % 0 lf 1022,9 hPa 0,0 l/m 2 min 0 min 782 W/m 14,6 km/h (3 Bft) 93,62 %
06.08.2017 11:50 20,3 C 29,4 C 26,7 C 70 % 0 lf 1022,9 hPa 0,0 l/m 2 min 0 min 785 W/m 14,6 km/h (3 Bft) 95,74 %
06.08.2017 11:52 20,4 C 30,6 C 26,7 C 68 % 0 lf 1022,9 hPa 0,0 l/m 2 min 0 min 787 W/m 16,7 km/h (3 Bft) 93,62 %
06.08.2017 11:54 20,5 C 30,6 C 26,7 C 66 % 0 lf 1022,9 hPa 0,0 l/m 2 min 0 min 789 W/m 16,7 km/h (3 Bft) 94,44 %
06.08.2017 11:56 20,6 C 30,0 C 25,6 C 66 % 0 lf 1022,9 hPa 0,0 l/m 2 min 0 min 792 W/m 10,5 km/h (2 Bft) 97,37 %
06.08.2017 11:58 20,6 C 28,3 C 24,4 C 65 % 0 lf 1022,9 hPa 0,0 l/m 2 min 0 min 444 W/m 10,5 km/h (2 Bft) 93,75 %
06.08.2017 12:00 20,7 C 26,7 C 23,3 C 66 % 0 lf 1022,8 hPa 0,0 l/m 0 min 0 min 229 W/m 10,5 km/h (2 Bft) 95,74 %
06.08.2017 12:02 20,6 C 25,6 C 21,7 C 66 % 0 lf 1022,9 hPa 0,0 l/m 0 min 0 min 186 W/m 10,5 km/h (2 Bft) 93,62 %
06.08.2017 12:04 20,6 C 24,4 C 21,7 C 65 % 0 lf 1022,9 hPa 0,0 l/m 0 min 0 min 200 W/m 10,5 km/h (2 Bft) 96,30 %
06.08.2017 12:06 20,5 C 26,1 C 23,9 C 67 % 0 lf 1022,8 hPa 0,0 l/m 2 min 0 min 384 W/m 14,6 km/h (3 Bft) 91,49 %
06.08.2017 12:10 20,6 C 28,3 C 25,6 C 66 % 0 lf 1022,8 hPa 0,0 l/m 4 min 0 min 680 W/m 12,6 km/h (3 Bft) 97,59 %
06.08.2017 12:12 20,6 C 26,7 C 23,9 C 65 % 0 lf 1022,8 hPa 0,0 l/m 2 min 0 min 732 W/m 14,6 km/h (3 Bft) 95,74 %
06.08.2017 12:14 20,6 C 25,0 C 22,8 C 65 % 0 lf 1022,9 hPa 0,0 l/m 0 min 0 min 264 W/m 14,6 km/h (3 Bft) 97,87 %
06.08.2017 12:16 20,6 C 24,4 C 21,7 C 65 % 0 lf 1022,8 hPa 0,0 l/m 0 min 0 min 234 W/m 12,6 km/h (3 Bft) 98,21 %
06.08.2017 12:18 20,6 C 24,4 C 21,1 C 65 % 0 lf 1022,8 hPa 0,0 l/m 0 min 0 min 286 W/m 10,5 km/h (2 Bft) 97,37 %
06.08.2017 12:20 20,6 C 25,0 C 21,1 C 66 % 0 lf 1022,8 hPa 0,0 l/m 0 min 0 min 287 W/m 10,5 km/h (2 Bft) 94,00 %
06.08.2017 12:22 20,5 C 23,3 C 20,6 C 65 % 0 lf 1022,9 hPa 0,0 l/m 0 min 0 min 282 W/m 8,4 km/h (2 Bft) 100,00 %
06.08.2017 12:24 20,4 C 22,8 C 20,0 C 65 % 0 lf 1022,8 hPa 0,0 l/m 0 min 0 min 198 W/m 10,5 km/h (2 Bft) 100,00 %
06.08.2017 12:26 20,4 C 22,2 C 20,0 C 65 % 0 lf 1022,9 hPa 0,0 l/m 0 min 0 min 216 W/m 8,4 km/h (2 Bft) 100,00 %
06.08.2017 12:28 20,3 C 22,2 C 20,0 C 65 % 0 lf 1022,8 hPa 0,0 l/m 0 min 0 min 245 W/m 14,6 km/h (3 Bft) 100,00 %
06.08.2017 12:30 20,3 C 22,2 C 20,0 C 66 % 0 lf 1022,8 hPa 0,0 l/m 0 min 0 min 268 W/m 12,6 km/h (3 Bft) 100,00 %
06.08.2017 12:32 20,2 C 24,4 C 22,2 C 65 % 0 lf 1022,7 hPa 0,0 l/m 2 min 0 min 461 W/m 10,5 km/h (2 Bft) 96,00 %
06.08.2017 12:34 20,3 C 27,2 C 24,4 C 65 % 0 lf 1022,7 hPa 0,0 l/m 2 min 0 min 952 W/m 8,4 km/h (2 Bft) 97,83 %
06.08.2017 12:36 20,3 C 28,9 C 25,6 C 65 % 0 lf 1022,6 hPa 0,0 l/m 2 min 0 min 957 W/m 12,6 km/h (3 Bft) 100,00 %
06.08.2017 12:38 20,4 C 28,9 C 25,0 C 66 % 0 lf 1022,6 hPa 0,0 l/m 2 min 0 min 946 W/m 12,6 km/h (3 Bft) 100,00 %
06.08.2017 12:40 20,5 C 27,8 C 23,3 C 65 % 0 lf 1022,6 hPa 0,0 l/m 2 min 0 min 837 W/m 10,5 km/h (2 Bft) 100,00 %
06.08.2017 12:42 20,6 C 25,6 C 22,8 C 66 % 0 lf 1022,6 hPa 0,0 l/m 2 min 0 min 526 W/m 16,7 km/h (3 Bft) 97,87 %
06.08.2017 12:44 20,5 C 23,9 C 21,7 C 66 % 0 lf 1022,5 hPa 0,0 l/m 0 min 0 min 310 W/m 10,5 km/h (2 Bft) 100,00 %
06.08.2017 12:46 20,4 C 23,3 C 21,1 C 65 % 0 lf 1022,6 hPa 0,0 l/m 0 min 0 min 308 W/m 8,4 km/h (2 Bft) 97,83 %
06.08.2017 12:48 20,4 C 22,8 C 20,6 C 66 % 0 lf 1022,6 hPa 0,0 l/m 0 min 0 min 311 W/m 10,5 km/h (2 Bft) 100,00 %
06.08.2017 12:50 20,4 C 25,0 C 21,1 C 67 % 0 lf 1022,5 hPa 0,0 l/m 0 min 0 min 313 W/m 8,4 km/h (2 Bft) 100,00 %
06.08.2017 12:52 20,4 C 24,4 C 20,6 C 66 % 0 lf 1022,5 hPa 0,0 l/m 0 min 0 min 302 W/m 12,6 km/h (3 Bft) 100,00 %
06.08.2017 12:54 20,3 C 22,8 C 20,0 C 66 % 0 lf 1022,5 hPa 0,0 l/m 0 min 0 min 339 W/m 14,6 km/h (3 Bft) 94,34 %
06.08.2017 12:56 20,3 C 22,2 C 20,0 C 65 % 0 lf 1022,4 hPa 0,0 l/m 0 min 0 min 350 W/m 14,6 km/h (3 Bft) 100,00 %
06.08.2017 12:58 20,2 C 25,0 C 20,6 C 65 % 0 lf 1022,5 hPa 0,0 l/m 2 min 0 min 674 W/m 10,5 km/h (2 Bft) 97,87 %
06.08.2017 13:00 20,3 C 26,7 C 21,1 C 65 % 0 lf 1022,5 hPa 0,0 l/m 2 min 0 min 845 W/m 16,7 km/h (3 Bft) 100,00 %
06.08.2017 13:02 20,3 C 27,2 C 21,7 C 65 % 0 lf 1022,5 hPa 0,0 l/m 2 min 0 min 846 W/m 16,7 km/h (3 Bft) 97,87 %
06.08.2017 13:04 20,4 C 28,3 C 22,2 C 64 % 0 lf 1022,5 hPa 0,0 l/m 2 min 0 min 847 W/m 14,6 km/h (3 Bft) 97,87 %
06.08.2017 13:06 20,4 C 28,9 C 23,3 C 64 % 0 lf 1022,4 hPa 0,0 l/m 2 min 0 min 848 W/m 10,5 km/h (2 Bft) 100,00 %
06.08.2017 13:08 20,6 C 28,9 C 23,9 C 63 % 0 lf 1022,4 hPa 0,0 l/m 2 min 0 min 849 W/m 10,5 km/h (2 Bft) 100,00 %
06.08.2017 13:10 20,7 C 29,4 C 24,4 C 64 % 0 lf 1022,5 hPa 0,0 l/m 2 min 0 min 1097 W/m 12,6 km/h (3 Bft) 100,00 %
06.08.2017 13:12 20,8 C 29,4 C 24,4 C 62 % 0 lf 1022,4 hPa 0,0 l/m 2 min 0 min 850 W/m 14,6 km/h (3 Bft) 98,11 %
06.08.2017 13:14 21,0 C 29,4 C 24,4 C 62 % 0 lf 1022,4 hPa 0,0 l/m 2 min 0 min 851 W/m 16,7 km/h (3 Bft) 94,74 %
06.08.2017 13:16 21,1 C 30,6 C 23,9 C 61 % 0 lf 1022,4 hPa 0,0 l/m 2 min 0 min 851 W/m 10,5 km/h (2 Bft) 89,36 %
06.08.2017 13:18 21,2 C 27,8 C 23,3 C 62 % 0 lf 1022,4 hPa 0,0 l/m 2 min 0 min 852 W/m 8,4 km/h (2 Bft) 98,00 %
06.08.2017 13:20 21,3 C 27,2 C 22,8 C 63 % 0 lf 1022,4 hPa 0,0 l/m 2 min 0 min 523 W/m 14,6 km/h (3 Bft) 97,83 %
06.08.2017 13:22 21,4 C 27,8 C 22,2 C 62 % 0 lf 1022,4 hPa 0,0 l/m 2 min 0 min 672 W/m 20,9 km/h (4 Bft) 97,87 %
06.08.2017 13:24 21,4 C 28,9 C 22,2 C 62 % 0 lf 1022,4 hPa 0,0 l/m 2 min 0 min 1136 W/m 16,7 km/h (3 Bft) 97,87 %
06.08.2017 13:26 21,5 C 30,0 C 22,2 C 60 % 0 lf 1022,5 hPa 0,0 l/m 2 min 0 min 854 W/m 16,7 km/h (3 Bft) 98,11 %
06.08.2017 13:28 21,6 C 30,6 C 22,2 C 62 % 0 lf 1022,5 hPa 0,0 l/m 2 min 0 min 854 W/m 16,7 km/h (3 Bft) 97,87 %
06.08.2017 13:30 21,7 C 30,6 C 22,2 C 61 % 0 lf 1022,4 hPa 0,0 l/m 2 min 0 min 854 W/m 14,6 km/h (3 Bft) 97,87 %
06.08.2017 13:32 21,8 C 31,1 C 22,8 C 60 % 0 lf 1022,4 hPa 0,0 l/m 2 min 0 min 1105 W/m 14,6 km/h (3 Bft) 97,87 %
06.08.2017 13:34 21,9 C 30,6 C 22,8 C 60 % 0 lf 1022,5 hPa 0,0 l/m 2 min 0 min 1116 W/m 10,5 km/h (2 Bft) 97,50 %
06.08.2017 13:36 22,0 C 28,3 C 22,8 C 57 % 0 lf 1022,4 hPa 0,0 l/m 2 min 0 min 1070 W/m 10,5 km/h (2 Bft) 97,87 %
06.08.2017 13:38 22,1 C 28,9 C 23,3 C 59 % 0 lf 1022,4 hPa 0,0 l/m 2 min 0 min 1049 W/m 8,4 km/h (2 Bft) 98,15 %
06.08.2017 13:40 22,1 C 29,4 C 23,3 C 59 % 0 lf 1022,4 hPa 0,0 l/m 2 min 0 min 1097 W/m 14,6 km/h (3 Bft) 97,37 %
06.08.2017 13:42 22,2 C 28,3 C 23,3 C 57 % 0 lf 1022,4 hPa 0,0 l/m 2 min 0 min 990 W/m 14,6 km/h (3 Bft) 97,87 %
06.08.2017 13:44 22,2 C 29,4 C 23,3 C 60 % 0 lf 1022,4 hPa 0,0 l/m 2 min 0 min 921 W/m 20,9 km/h (4 Bft) 97,92 %
06.08.2017 13:46 22,3 C 31,7 C 23,3 C 62 % 0 lf 1022,4 hPa 0,0 l/m 2 min 0 min 1125 W/m 12,6 km/h (3 Bft) 95,74 %
06.08.2017 13:48 22,4 C 32,2 C 23,3 C 61 % 0 lf 1022,4 hPa 0,0 l/m 2 min 0 min 1125 W/m 10,5 km/h (2 Bft) 96,30 %
06.08.2017 13:50 22,5 C 31,7 C 23,3 C 60 % 0 lf 1022,4 hPa 0,0 l/m 2 min 0 min 1125 W/m 10,5 km/h (2 Bft) 94,74 %
06.08.2017 13:52 22,6 C 31,7 C 23,3 C 60 % 0 lf 1022,4 hPa 0,0 l/m 2 min 0 min 1028 W/m 16,7 km/h (3 Bft) 95,74 %
06.08.2017 13:54 22,6 C 32,2 C 23,3 C 58 % 0 lf 1022,3 hPa 0,0 l/m 2 min 0 min 1082 W/m 14,6 km/h (3 Bft) 95,74 %
06.08.2017 13:56 22,7 C 31,1 C 23,3 C 59 % 0 lf 1022,3 hPa 0,0 l/m 2 min 0 min 1092 W/m 14,6 km/h (3 Bft) 91,67 %
06.08.2017 13:58 22,7 C 31,7 C 23,3 C 57 % 0 lf 1022,2 hPa 0,0 l/m 2 min 0 min 1060 W/m 8,4 km/h (2 Bft) 93,62 %
06.08.2017 14:00 22,8 C 32,8 C 22,8 C 56 % 0 lf 1022,2 hPa 0,0 l/m 2 min 0 min 1003 W/m 8,4 km/h (2 Bft) 90,74 %
06.08.2017 14:02 22,8 C 33,3 C 22,8 C 55 % 0 lf 1022,2 hPa 0,0 l/m 2 min 0 min 1011 W/m 10,5 km/h (2 Bft) 91,49 %
06.08.2017 14:04 22,8 C 31,1 C 22,2 C 54 % 0 lf 1022,2 hPa 0,0 l/m 2 min 0 min 1100 W/m 8,4 km/h (2 Bft) 89,36 %
06.08.2017 14:06 22,8 C 30,6 C 22,8 C 55 % 0 lf 1022,2 hPa 0,0 l/m 2 min 0 min 1121 W/m 8,4 km/h (2 Bft) 92,11 %
06.08.2017 14:08 22,8 C 31,1 C 22,8 C 57 % 0 lf 1022,1 hPa 0,0 l/m 2 min 0 min 1068 W/m 14,6 km/h (3 Bft) 91,67 %
06.08.2017 14:10 22,8 C 32,2 C 22,8 C 57 % 0 lf 1022,2 hPa 0,0 l/m 2 min 0 min 1054 W/m 6,3 km/h (2 Bft) 93,62 %
06.08.2017 14:12 22,9 C 32,8 C 23,3 C 58 % 0 lf 1022,2 hPa 0,0 l/m 2 min 0 min 1043 W/m 6,3 km/h (2 Bft) 93,62 %
06.08.2017 14:14 23,0 C 32,8 C 23,9 C 57 % 0 lf 1022,2 hPa 0,0 l/m 2 min 0 min 848 W/m 8,4 km/h (2 Bft) 92,59 %
06.08.2017 14:16 23,1 C 31,7 C 24,4 C 59 % 0 lf 1022,2 hPa 0,0 l/m 2 min 0 min 847 W/m 10,5 km/h (2 Bft) 94,74 %
06.08.2017 14:18 23,1 C 31,7 C 24,4 C 56 % 0 lf 1022,1 hPa 0,0 l/m 2 min 0 min 846 W/m 8,4 km/h (2 Bft) 91,67 %
06.08.2017 14:20 23,2 C 30,0 C 24,4 C 55 % 0 lf 1022,2 hPa 0,0 l/m 2 min 0 min 845 W/m 14,6 km/h (3 Bft) 91,49 %
06.08.2017 14:22 23,2 C 30,6 C 24,4 C 55 % 0 lf 1022,2 hPa 0,0 l/m 2 min 0 min 844 W/m 14,6 km/h (3 Bft) 91,49 %
06.08.2017 14:24 23,3 C 29,4 C 23,9 C 53 % 0 lf 1022,2 hPa 0,0 l/m 2 min 0 min 843 W/m 12,6 km/h (3 Bft) 94,44 %
06.08.2017 14:26 23,2 C 28,3 C 23,3 C 53 % 0 lf 1022,0 hPa 0,0 l/m 2 min 0 min 842 W/m 8,4 km/h (2 Bft) 93,62 %
06.08.2017 14:28 23,3 C 29,4 C 23,9 C 54 % 0 lf 1022,1 hPa 0,0 l/m 2 min 0 min 841 W/m 12,6 km/h (3 Bft) 93,62 %
06.08.2017 14:30 23,3 C 28,9 C 23,9 C 53 % 0 lf 1022,1 hPa 0,0 l/m 2 min 0 min 840 W/m 16,7 km/h (3 Bft) 92,11 %
06.08.2017 14:32 23,3 C 30,6 C 24,4 C 55 % 0 lf 1022,1 hPa 0,0 l/m 2 min 0 min 839 W/m 12,6 km/h (3 Bft) 89,36 %
06.08.2017 14:34 23,3 C 30,6 C 24,4 C 55 % 0 lf 1022,0 hPa 0,0 l/m 2 min 0 min 837 W/m 12,6 km/h (3 Bft) 93,75 %
06.08.2017 14:36 23,4 C 30,6 C 25,6 C 56 % 0 lf 1022,1 hPa 0,0 l/m 2 min 0 min 836 W/m 18,8 km/h (3 Bft) 93,62 %
06.08.2017 14:38 23,4 C 30,6 C 26,1 C 57 % 0 lf 1022,1 hPa 0,0 l/m 2 min 0 min 835 W/m 12,6 km/h (3 Bft) 93,62 %
06.08.2017 14:40 23,5 C 31,7 C 27,8 C 57 % 0 lf 1022,1 hPa 0,0 l/m 2 min 0 min 833 W/m 16,7 km/h (3 Bft) 96,30 %
06.08.2017 14:42 23,5 C 30,6 C 27,8 C 56 % 0 lf 1022,1 hPa 0,0 l/m 2 min 0 min 832 W/m 16,7 km/h (3 Bft) 97,87 %
06.08.2017 14:44 23,5 C 30,0 C 27,8 C 54 % 0 lf 1022,1 hPa 0,0 l/m 2 min 0 min 830 W/m 14,6 km/h (3 Bft) 94,74 %
06.08.2017 14:46 23,5 C 30,6 C 28,3 C 55 % 0 lf 1021,9 hPa 0,0 l/m 2 min 0 min 829 W/m 14,6 km/h (3 Bft) 100,00 %
06.08.2017 14:48 23,5 C 29,4 C 28,3 C 55 % 0 lf 1021,9 hPa 0,0 l/m 2 min 0 min 827 W/m 18,8 km/h (3 Bft) 100,00 %
06.08.2017 14:50 23,6 C 30,0 C 29,4 C 56 % 0 lf 1022,0 hPa 0,0 l/m 2 min 0 min 1004 W/m 23,0 km/h (4 Bft) 100,00 %
06.08.2017 14:52 23,5 C 29,4 C 29,4 C 53 % 0 lf 1022,0 hPa 0,0 l/m 2 min 0 min 824 W/m 18,8 km/h (3 Bft) 97,87 %
06.08.2017 14:54 23,5 C 30,0 C 30,0 C 54 % 0 lf 1022,0 hPa 0,0 l/m 2 min 0 min 822 W/m 14,6 km/h (3 Bft) 98,15 %
06.08.2017 14:56 23,5 C 29,4 C 29,4 C 51 % 0 lf 1022,0 hPa 0,0 l/m 2 min 0 min 821 W/m 8,4 km/h (2 Bft) 97,37 %
06.08.2017 14:58 23,5 C 27,8 C 30,0 C 51 % 0 lf 1022,0 hPa 0,0 l/m 2 min 0 min 819 W/m 8,4 km/h (2 Bft) 95,74 %
06.08.2017 15:00 23,5 C 29,4 C 30,6 C 54 % 0 lf 1022,0 hPa 0,0 l/m 2 min 0 min 905 W/m 12,6 km/h (3 Bft) 100,00 %
06.08.2017 15:02 23,5 C 28,3 C 30,0 C 54 % 0 lf 1022,0 hPa 0,0 l/m 2 min 0 min 975 W/m 14,6 km/h (3 Bft) 100,00 %
06.08.2017 15:04 23,4 C 25,0 C 27,2 C 55 % 0 lf 1022,0 hPa 0,0 l/m 2 min 0 min 886 W/m 16,7 km/h (3 Bft) 100,00 %
06.08.2017 15:06 23,3 C 24,4 C 25,0 C 55 % 0 lf 1022,0 hPa 0,0 l/m 0 min 0 min 322 W/m 14,6 km/h (3 Bft) 100,00 %
06.08.2017 15:08 23,2 C 25,0 C 25,6 C 56 % 0 lf 1022,0 hPa 0,0 l/m 0 min 0 min 179 W/m 10,5 km/h (2 Bft) 97,92 %
06.08.2017 15:10 23,1 C 23,3 C 23,9 C 55 % 0 lf 1022,0 hPa 0,0 l/m 0 min 0 min 167 W/m 10,5 km/h (2 Bft) 100,00 %
06.08.2017 15:12 22,9 C 22,8 C 22,8 C 55 % 0 lf 1022,0 hPa 0,0 l/m 0 min 0 min 156 W/m 8,4 km/h (2 Bft) 100,00 %
06.08.2017 15:14 22,9 C 22,8 C 22,8 C 57 % 0 lf 1022,0 hPa 0,0 l/m 0 min 0 min 169 W/m 8,4 km/h (2 Bft) 94,74 %
06.08.2017 15:16 22,8 C 22,8 C 22,8 C 57 % 0 lf 1021,9 hPa 0,0 l/m 0 min 0 min 219 W/m 6,3 km/h (2 Bft) 97,96 %
06.08.2017 15:18 22,7 C 23,9 C 23,3 C 56 % 0 lf 1022,0 hPa 0,0 l/m 0 min 0 min 200 W/m 10,5 km/h (2 Bft) 100,00 %
06.08.2017 15:20 22,6 C 25,6 C 25,6 C 56 % 0 lf 1022,0 hPa 0,0 l/m 2 min 0 min 870 W/m 10,5 km/h (2 Bft) 100,00 %
06.08.2017 15:22 22,5 C 23,9 C 25,0 C 55 % 0 lf 1021,9 hPa 0,0 l/m 2 min 0 min 856 W/m 14,6 km/h (3 Bft) 97,37 %
06.08.2017 15:24 22,4 C 22,8 C 23,9 C 55 % 0 lf 1021,9 hPa 0,0 l/m 0 min 0 min 218 W/m 8,4 km/h (2 Bft) 100,00 %
06.08.2017 15:26 22,3 C 21,7 C 22,8 C 55 % 0 lf 1021,8 hPa 0,0 l/m 0 min 0 min 182 W/m 6,3 km/h (2 Bft) 100,00 %
06.08.2017 15:28 22,1 C 21,7 C 22,2 C 56 % 0 lf 1021,8 hPa 0,0 l/m 0 min 0 min 192 W/m 4,2 km/h (1 Bft) 100,00 %
06.08.2017 15:30 22,1 C 22,2 C 22,2 C 57 % 0 lf 1021,8 hPa 0,0 l/m 0 min 0 min 219 W/m 4,2 km/h (1 Bft) 100,00 %
06.08.2017 15:32 22,0 C 25,0 C 24,4 C 56 % 0 lf 1021,8 hPa 0,0 l/m 0 min 0 min 230 W/m 4,2 km/h (1 Bft) 100,00 %
06.08.2017 15:34 21,9 C 27,2 C 27,2 C 58 % 0 lf 1021,8 hPa 0,0 l/m 2 min 0 min 447 W/m 6,3 km/h (2 Bft) 100,00 %
06.08.2017 15:36 22,0 C 29,4 C 30,0 C 61 % 0 lf 1021,9 hPa 0,0 l/m 2 min 0 min 920 W/m 10,5 km/h (2 Bft) 97,87 %
06.08.2017 15:38 22,2 C 28,3 C 29,4 C 60 % 0 lf 1021,8 hPa 0,0 l/m 2 min 0 min 932 W/m 12,6 km/h (3 Bft) 100,00 %
06.08.2017 15:40 22,2 C 27,8 C 28,3 C 58 % 0 lf 1021,9 hPa 0,0 l/m 2 min 0 min 534 W/m 14,6 km/h (3 Bft) 100,00 %
06.08.2017 15:42 22,3 C 27,8 C 28,9 C 58 % 0 lf 1021,9 hPa 0,0 l/m 2 min 0 min 444 W/m 16,7 km/h (3 Bft) 100,00 %
06.08.2017 15:44 22,3 C 28,9 C 30,6 C 58 % 0 lf 1021,9 hPa 0,0 l/m 2 min 0 min 885 W/m 10,5 km/h (2 Bft) 100,00 %
06.08.2017 15:46 22,4 C 29,4 C 31,1 C 57 % 0 lf 1021,9 hPa 0,0 l/m 2 min 0 min 857 W/m 10,5 km/h (2 Bft) 100,00 %
06.08.2017 15:48 22,6 C 30,6 C 31,7 C 57 % 0 lf 1021,9 hPa 0,0 l/m 2 min 0 min 835 W/m 8,4 km/h (2 Bft) 93,62 %
06.08.2017 15:50 22,6 C 30,6 C 32,2 C 56 % 0 lf 1021,8 hPa 0,0 l/m 2 min 0 min 820 W/m 10,5 km/h (2 Bft) 100,00 %
06.08.2017 15:52 22,7 C 30,6 C 32,2 C 57 % 0 lf 1021,9 hPa 0,0 l/m 2 min 0 min 820 W/m 10,5 km/h (2 Bft) 100,00 %
06.08.2017 15:54 22,8 C 28,9 C 31,7 C 56 % 0 lf 1021,9 hPa 0,0 l/m 2 min 0 min 811 W/m 14,6 km/h (3 Bft) 100,00 %
06.08.2017 15:56 22,9 C 27,2 C 30,6 C 54 % 0 lf 1021,9 hPa 0,0 l/m 2 min 0 min 832 W/m 14,6 km/h (3 Bft) 100,00 %
06.08.2017 15:58 22,9 C 28,9 C 31,7 C 56 % 0 lf 1021,8 hPa 0,0 l/m 2 min 0 min 856 W/m 10,5 km/h (2 Bft) 97,83 %
06.08.2017 16:00 23,1 C 30,0 C 31,7 C 57 % 0 lf 1021,8 hPa 0,0 l/m 2 min 0 min 859 W/m 8,4 km/h (2 Bft) 100,00 %
06.08.2017 16:02 23,2 C 28,9 C 30,6 C 55 % 0 lf 1021,8 hPa 0,0 l/m 2 min 0 min 870 W/m 6,3 km/h (2 Bft) 100,00 %
06.08.2017 16:04 23,2 C 28,3 C 28,3 C 56 % 0 lf 1021,8 hPa 0,0 l/m 2 min 0 min 641 W/m 8,4 km/h (2 Bft) 95,74 %
06.08.2017 16:06 23,2 C 26,7 C 26,7 C 56 % 0 lf 1021,9 hPa 0,0 l/m 0 min 0 min 239 W/m 14,6 km/h (3 Bft) 97,87 %
06.08.2017 16:08 23,2 C 25,6 C 25,6 C 55 % 0 lf 1021,8 hPa 0,0 l/m 0 min 0 min 241 W/m 14,6 km/h (3 Bft) 97,87 %
06.08.2017 16:10 23,2 C 25,0 C 25,0 C 55 % 0 lf 1021,9 hPa 0,0 l/m 0 min 0 min 286 W/m 8,4 km/h (2 Bft) 95,65 %
06.08.2017 16:12 23,1 C 26,1 C 27,2 C 55 % 0 lf 1021,9 hPa 0,0 l/m 2 min 0 min 596 W/m 10,5 km/h (2 Bft) 97,87 %
06.08.2017 16:14 23,1 C 25,0 C 26,1 C 55 % 0 lf 1021,9 hPa 0,0 l/m 2 min 0 min 477 W/m 12,6 km/h (3 Bft) 93,62 %
06.08.2017 16:16 23,1 C 24,4 C 25,0 C 54 % 0 lf 1021,9 hPa 0,0 l/m 0 min 0 min 267 W/m 10,5 km/h (2 Bft) 97,87 %
06.08.2017 16:18 23,0 C 24,4 C 24,4 C 55 % 0 lf 1021,9 hPa 0,0 l/m 0 min 0 min 254 W/m 8,4 km/h (2 Bft) 95,74 %
06.08.2017 16:20 22,9 C 26,1 C 26,7 C 57 % 0 lf 1021,9 hPa 0,0 l/m 2 min 0 min 606 W/m 10,5 km/h (2 Bft) 97,87 %
06.08.2017 16:22 23,0 C 27,2 C 28,9 C 57 % 0 lf 1021,8 hPa 0,0 l/m 2 min 0 min 767 W/m 6,3 km/h (2 Bft) 93,48 %
06.08.2017 16:24 23,0 C 27,2 C 30,0 C 57 % 0 lf 1021,8 hPa 0,0 l/m 2 min 0 min 765 W/m 6,3 km/h (2 Bft) 95,92 %
06.08.2017 16:26 23,1 C 26,7 C 28,9 C 56 % 0 lf 1021,8 hPa 0,0 l/m 2 min 0 min 748 W/m 8,4 km/h (2 Bft) 95,74 %
06.08.2017 16:28 23,1 C 27,2 C 27,8 C 56 % 0 lf 1021,9 hPa 0,0 l/m 2 min 0 min 744 W/m 10,5 km/h (2 Bft) 95,65 %
06.08.2017 16:30 23,1 C 25,6 C 26,1 C 54 % 0 lf 1021,9 hPa 0,0 l/m 2 min 0 min 443 W/m 10,5 km/h (2 Bft) 93,62 %
06.08.2017 16:32 23,0 C 24,4 C 24,4 C 54 % 0 lf 1021,8 hPa 0,0 l/m 0 min 0 min 155 W/m 10,5 km/h (2 Bft) 91,49 %
06.08.2017 16:34 22,9 C 23,9 C 23,3 C 53 % 0 lf 1021,9 hPa 0,0 l/m 0 min 0 min 166 W/m 8,4 km/h (2 Bft) 93,62 %
06.08.2017 16:36 22,9 C 23,3 C 22,8 C 56 % 0 lf 1021,8 hPa 0,0 l/m 0 min 0 min 183 W/m 6,3 km/h (2 Bft) 91,49 %
06.08.2017 16:38 22,8 C 23,3 C 22,2 C 56 % 0 lf 1021,9 hPa 0,0 l/m 0 min 0 min 182 W/m 8,4 km/h (2 Bft) 91,49 %
06.08.2017 16:40 22,7 C 23,3 C 22,2 C 56 % 0 lf 1021,8 hPa 0,0 l/m 0 min 0 min 180 W/m 8,4 km/h (2 Bft) 93,48 %
06.08.2017 16:42 22,7 C 23,3 C 22,2 C 57 % 0 lf 1021,8 hPa 0,0 l/m 0 min 0 min 178 W/m 6,3 km/h (2 Bft) 91,49 %
06.08.2017 16:44 22,6 C 22,8 C 22,2 C 57 % 0 lf 1021,8 hPa 0,0 l/m 0 min 0 min 182 W/m 6,3 km/h (2 Bft) 91,49 %
06.08.2017 16:46 22,5 C 23,3 C 22,2 C 57 % 0 lf 1021,8 hPa 0,0 l/m 0 min 0 min 185 W/m 8,4 km/h (2 Bft) 91,49 %
06.08.2017 16:48 22,4 C 23,3 C 22,2 C 57 % 0 lf 1021,8 hPa 0,0 l/m 0 min 0 min 190 W/m 6,3 km/h (2 Bft) 95,74 %
06.08.2017 16:50 22,4 C 23,3 C 22,2 C 58 % 0 lf 1021,8 hPa 0,0 l/m 0 min 0 min 201 W/m 6,3 km/h (2 Bft) 95,74 %
06.08.2017 16:52 22,3 C 23,3 C 22,2 C 57 % 0 lf 1021,8 hPa 0,0 l/m 0 min 0 min 207 W/m 4,2 km/h (1 Bft) 93,48 %
06.08.2017 16:54 22,3 C 23,3 C 22,2 C 57 % 0 lf 1021,8 hPa 0,0 l/m 0 min 0 min 214 W/m 4,2 km/h (1 Bft) 95,74 %
06.08.2017 16:56 22,2 C 23,9 C 22,8 C 57 % 0 lf 1021,9 hPa 0,0 l/m 2 min 0 min 364 W/m 6,3 km/h (2 Bft) 93,62 %
06.08.2017 16:58 22,3 C 24,4 C 23,9 C 58 % 0 lf 1022,0 hPa 0,0 l/m 2 min 0 min 732 W/m 8,4 km/h (2 Bft) 93,62 %
06.08.2017 17:00 22,3 C 25,0 C 24,4 C 57 % 0 lf 1022,0 hPa 0,0 l/m 2 min 0 min 744 W/m 10,5 km/h (2 Bft) 93,62 %
06.08.2017 17:02 22,3 C 25,0 C 23,9 C 57 % 0 lf 1021,9 hPa 0,0 l/m 2 min 0 min 749 W/m 16,7 km/h (3 Bft) 93,48 %
06.08.2017 17:04 22,3 C 25,0 C 23,3 C 56 % 0 lf 1021,8 hPa 0,0 l/m 2 min 0 min 744 W/m 14,6 km/h (3 Bft) 91,49 %
06.08.2017 17:06 22,3 C 25,0 C 23,3 C 57 % 0 lf 1021,8 hPa 0,0 l/m 2 min 0 min 729 W/m 16,7 km/h (3 Bft) 89,36 %
06.08.2017 17:08 22,3 C 25,0 C 22,8 C 56 % 0 lf 1021,9 hPa 0,0 l/m 2 min 0 min 718 W/m 16,7 km/h (3 Bft) 93,62 %
06.08.2017 17:10 22,3 C 24,4 C 22,2 C 57 % 0 lf 1021,9 hPa 0,0 l/m 2 min 0 min 704 W/m 14,6 km/h (3 Bft) 91,49 %
06.08.2017 17:12 22,4 C 24,4 C 22,8 C 56 % 0 lf 1021,8 hPa 0,0 l/m 2 min 0 min 681 W/m 10,5 km/h (2 Bft) 95,74 %
06.08.2017 17:14 22,3 C 23,9 C 22,2 C 56 % 0 lf 1021,8 hPa 0,0 l/m 2 min 0 min 675 W/m 6,3 km/h (2 Bft) 95,65 %
06.08.2017 17:16 22,3 C 23,9 C 22,2 C 57 % 0 lf 1021,8 hPa 0,0 l/m 0 min 0 min 258 W/m 8,4 km/h (2 Bft) 91,49 %
06.08.2017 17:18 22,3 C 23,9 C 21,7 C 57 % 0 lf 1021,9 hPa 0,0 l/m 0 min 0 min 194 W/m 6,3 km/h (2 Bft) 95,74 %
06.08.2017 17:20 22,3 C 23,9 C 21,7 C 57 % 0 lf 1021,9 hPa 0,0 l/m 0 min 0 min 180 W/m 6,3 km/h (2 Bft) 95,74 %
06.08.2017 17:22 22,3 C 23,9 C 21,1 C 57 % 0 lf 1021,9 hPa 0,0 l/m 0 min 0 min 200 W/m 8,4 km/h (2 Bft) 95,74 %
06.08.2017 17:24 22,3 C 23,3 C 21,1 C 57 % 0 lf 1021,9 hPa 0,0 l/m 0 min 0 min 211 W/m 10,5 km/h (2 Bft) 97,87 %
06.08.2017 17:26 22,2 C 23,3 C 21,1 C 56 % 0 lf 1021,9 hPa 0,0 l/m 2 min 0 min 306 W/m 6,3 km/h (2 Bft) 93,48 %
06.08.2017 17:28 22,2 C 23,3 C 21,1 C 57 % 0 lf 1021,9 hPa 0,0 l/m 0 min 0 min 190 W/m 4,2 km/h (1 Bft) 97,87 %
06.08.2017 17:30 22,2 C 23,3 C 21,1 C 57 % 0 lf 1021,9 hPa 0,0 l/m 0 min 0 min 160 W/m 8,4 km/h (2 Bft) 93,62 %
06.08.2017 17:32 22,2 C 23,3 C 21,1 C 58 % 0 lf 1021,9 hPa 0,0 l/m 0 min 0 min 157 W/m 6,3 km/h (2 Bft) 97,87 %
06.08.2017 17:34 22,2 C 23,3 C 21,1 C 58 % 0 lf 1021,9 hPa 0,0 l/m 0 min 0 min 163 W/m 10,5 km/h (2 Bft) 95,74 %
06.08.2017 17:36 22,1 C 22,8 C 21,1 C 58 % 0 lf 1021,9 hPa 0,0 l/m 0 min 0 min 164 W/m 10,5 km/h (2 Bft) 95,74 %
06.08.2017 17:38 22,1 C 22,8 C 20,6 C 58 % 0 lf 1021,9 hPa 0,0 l/m 0 min 0 min 189 W/m 10,5 km/h (2 Bft) 93,48 %
06.08.2017 17:40 22,0 C 22,8 C 20,6 C 60 % 0 lf 1022,0 hPa 0,0 l/m 2 min 0 min 284 W/m 10,5 km/h (2 Bft) 95,74 %
06.08.2017 17:42 22,0 C 22,8 C 21,1 C 60 % 0 lf 1022,0 hPa 0,0 l/m 2 min 0 min 366 W/m 8,4 km/h (2 Bft) 97,87 %
06.08.2017 17:44 21,9 C 23,3 C 21,1 C 58 % 0 lf 1021,9 hPa 0,0 l/m 2 min 0 min 489 W/m 6,3 km/h (2 Bft) 97,87 %
06.08.2017 17:46 21,9 C 23,9 C 21,1 C 58 % 0 lf 1021,9 hPa 0,0 l/m 2 min 0 min 537 W/m 8,4 km/h (2 Bft) 95,74 %
06.08.2017 17:48 22,0 C 23,9 C 21,1 C 58 % 0 lf 1021,9 hPa 0,0 l/m 2 min 0 min 524 W/m 10,5 km/h (2 Bft) 95,74 %
06.08.2017 17:50 22,0 C 23,3 C 21,7 C 57 % 0 lf 1021,9 hPa 0,0 l/m 2 min 0 min 530 W/m 10,5 km/h (2 Bft) 100,00 %
06.08.2017 17:52 22,0 C 23,3 C 21,1 C 57 % 0 lf 1021,9 hPa 0,0 l/m 2 min 0 min 522 W/m 12,6 km/h (3 Bft) 100,00 %
06.08.2017 17:54 22,1 C 23,3 C 21,1 C 57 % 0 lf 1021,9 hPa 0,0 l/m 2 min 0 min 505 W/m 12,6 km/h (3 Bft) 100,00 %
06.08.2017 17:56 22,1 C 23,3 C 21,1 C 57 % 0 lf 1021,9 hPa 0,0 l/m 2 min 0 min 494 W/m 12,6 km/h (3 Bft) 100,00 %
06.08.2017 17:58 22,1 C 23,9 C 21,1 C 56 % 0 lf 1022,0 hPa 0,0 l/m 2 min 0 min 481 W/m 8,4 km/h (2 Bft) 100,00 %
06.08.2017 18:00 22,1 C 23,3 C 21,1 C 55 % 0 lf 1022,0 hPa 0,0 l/m 2 min 0 min 460 W/m 8,4 km/h (2 Bft) 100,00 %
06.08.2017 18:02 22,1 C 23,3 C 21,1 C 55 % 0 lf 1022,0 hPa 0,0 l/m 2 min 0 min 473 W/m 8,4 km/h (2 Bft) 97,83 %
06.08.2017 18:04 22,1 C 23,3 C 21,1 C 54 % 0 lf 1022,0 hPa 0,0 l/m 2 min 0 min 476 W/m 12,6 km/h (3 Bft) 100,00 %
06.08.2017 18:08 22,1 C 22,8 C 21,1 C 55 % 0 lf 1021,9 hPa 0,0 l/m 4 min 0 min 430 W/m 8,4 km/h (2 Bft) 100,00 %
06.08.2017 18:10 22,1 C 22,8 C 20,6 C 55 % 0 lf 1021,9 hPa 0,0 l/m 2 min 0 min 420 W/m 8,4 km/h (2 Bft) 100,00 %
06.08.2017 18:12 22,1 C 22,8 C 20,6 C 55 % 0 lf 1021,8 hPa 0,0 l/m 2 min 0 min 408 W/m 14,6 km/h (3 Bft) 97,87 %
06.08.2017 18:14 22,1 C 22,2 C 20,6 C 54 % 0 lf 1021,8 hPa 0,0 l/m 2 min 0 min 407 W/m 12,6 km/h (3 Bft) 97,83 %
06.08.2017 18:16 22,0 C 22,2 C 20,6 C 54 % 0 lf 1021,7 hPa 0,0 l/m 2 min 0 min 291 W/m 10,5 km/h (2 Bft) 97,87 %
06.08.2017 18:18 22,0 C 22,2 C 20,6 C 55 % 0 lf 1021,8 hPa 0,0 l/m 2 min 0 min 280 W/m 10,5 km/h (2 Bft) 95,74 %
06.08.2017 18:20 22,0 C 22,2 C 20,6 C 55 % 0 lf 1021,7 hPa 0,0 l/m 2 min 0 min 404 W/m 12,6 km/h (3 Bft) 100,00 %
06.08.2017 18:22 22,0 C 22,2 C 20,6 C 55 % 0 lf 1021,8 hPa 0,0 l/m 2 min 0 min 407 W/m 12,6 km/h (3 Bft) 97,87 %
06.08.2017 18:24 21,9 C 22,2 C 20,6 C 57 % 0 lf 1021,7 hPa 0,0 l/m 2 min 0 min 386 W/m 12,6 km/h (3 Bft) 97,87 %
06.08.2017 18:26 21,9 C 22,2 C 20,0 C 57 % 0 lf 1021,7 hPa 0,0 l/m 2 min 0 min 362 W/m 10,5 km/h (2 Bft) 97,83 %
06.08.2017 18:28 21,9 C 22,2 C 20,0 C 57 % 0 lf 1021,7 hPa 0,0 l/m 2 min 0 min 383 W/m 10,5 km/h (2 Bft) 95,74 %
06.08.2017 18:30 21,9 C 22,2 C 20,0 C 57 % 0 lf 1021,6 hPa 0,0 l/m 2 min 0 min 366 W/m 6,3 km/h (2 Bft) 95,74 %
06.08.2017 18:32 21,9 C 22,2 C 20,0 C 57 % 0 lf 1021,7 hPa 0,0 l/m 2 min 0 min 357 W/m 6,3 km/h (2 Bft) 97,87 %
06.08.2017 18:34 21,9 C 22,2 C 20,0 C 56 % 0 lf 1021,6 hPa 0,0 l/m 2 min 0 min 358 W/m 6,3 km/h (2 Bft) 97,87 %
06.08.2017 18:36 21,8 C 22,2 C 20,0 C 57 % 0 lf 1021,6 hPa 0,0 l/m 2 min 0 min 344 W/m 8,4 km/h (2 Bft) 93,48 %
06.08.2017 18:38 21,8 C 22,2 C 20,0 C 57 % 0 lf 1021,6 hPa 0,0 l/m 2 min 0 min 246 W/m 8,4 km/h (2 Bft) 95,74 %
06.08.2017 18:40 21,8 C 22,2 C 20,0 C 57 % 0 lf 1021,6 hPa 0,0 l/m 2 min 0 min 262 W/m 10,5 km/h (2 Bft) 97,87 %
06.08.2017 18:42 21,8 C 22,2 C 19,4 C 56 % 0 lf 1021,6 hPa 0,0 l/m 2 min 0 min 327 W/m 6,3 km/h (2 Bft) 97,87 %
06.08.2017 18:44 21,8 C 22,2 C 19,4 C 56 % 0 lf 1021,6 hPa 0,0 l/m 2 min 0 min 317 W/m 12,6 km/h (3 Bft) 97,87 %
06.08.2017 18:46 21,7 C 21,7 C 19,4 C 56 % 0 lf 1021,6 hPa 0,0 l/m 2 min 0 min 316 W/m 14,6 km/h (3 Bft) 97,87 %
06.08.2017 18:48 21,7 C 21,7 C 19,4 C 55 % 0 lf 1021,5 hPa 0,0 l/m 2 min 0 min 312 W/m 10,5 km/h (2 Bft) 97,83 %
06.08.2017 18:50 21,6 C 21,7 C 19,4 C 55 % 0 lf 1021,5 hPa 0,0 l/m 2 min 0 min 302 W/m 10,5 km/h (2 Bft) 97,87 %
06.08.2017 18:52 21,6 C 21,7 C 19,4 C 55 % 0 lf 1021,5 hPa 0,0 l/m 2 min 0 min 297 W/m 8,4 km/h (2 Bft) 97,87 %
06.08.2017 18:54 21,6 C 21,7 C 19,4 C 56 % 0 lf 1021,5 hPa 0,0 l/m 2 min 0 min 281 W/m 6,3 km/h (2 Bft) 97,87 %
06.08.2017 18:56 21,6 C 21,7 C 19,4 C 57 % 0 lf 1021,5 hPa 0,0 l/m 2 min 0 min 282 W/m 8,4 km/h (2 Bft) 100,00 %
06.08.2017 18:58 21,6 C 21,7 C 19,4 C 57 % 0 lf 1021,5 hPa 0,0 l/m 2 min 0 min 231 W/m 10,5 km/h (2 Bft) 97,87 %
06.08.2017 19:00 21,5 C 21,7 C 19,4 C 58 % 0 lf 1021,5 hPa 0,0 l/m 0 min 0 min 138 W/m 12,6 km/h (3 Bft) 100,00 %
06.08.2017 19:02 21,5 C 21,1 C 19,4 C 57 % 0 lf 1021,5 hPa 0,0 l/m 2 min 0 min 198 W/m 12,6 km/h (3 Bft) 97,87 %
06.08.2017 19:04 21,5 C 21,1 C 19,4 C 57 % 0 lf 1021,5 hPa 0,0 l/m 2 min 0 min 217 W/m 8,4 km/h (2 Bft) 97,87 %
06.08.2017 19:06 21,4 C 21,1 C 18,9 C 58 % 0 lf 1021,4 hPa 0,0 l/m 2 min 0 min 207 W/m 10,5 km/h (2 Bft) 97,87 %
06.08.2017 19:08 21,4 C 21,1 C 18,9 C 58 % 0 lf 1021,5 hPa 0,0 l/m 2 min 0 min 209 W/m 8,4 km/h (2 Bft) 95,74 %
06.08.2017 19:10 21,4 C 21,1 C 18,9 C 58 % 0 lf 1021,5 hPa 0,0 l/m 2 min 0 min 198 W/m 6,3 km/h (2 Bft) 95,74 %
06.08.2017 19:12 21,4 C 21,1 C 18,9 C 58 % 0 lf 1021,5 hPa 0,0 l/m 2 min 0 min 186 W/m 8,4 km/h (2 Bft) 93,48 %
06.08.2017 19:14 21,4 C 21,1 C 18,9 C 58 % 0 lf 1021,5 hPa 0,0 l/m 2 min 0 min 202 W/m 6,3 km/h (2 Bft) 97,87 %
06.08.2017 19:16 21,4 C 21,1 C 18,9 C 58 % 0 lf 1021,5 hPa 0,0 l/m 2 min 0 min 202 W/m 8,4 km/h (2 Bft) 95,74 %
06.08.2017 19:18 21,3 C 21,1 C 18,9 C 58 % 0 lf 1021,5 hPa 0,0 l/m 2 min 0 min 211 W/m 8,4 km/h (2 Bft) 97,87 %
06.08.2017 19:20 21,3 C 21,1 C 18,9 C 58 % 0 lf 1021,5 hPa 0,0 l/m 2 min 0 min 206 W/m 8,4 km/h (2 Bft) 97,87 %
06.08.2017 19:22 21,3 C 21,1 C 18,9 C 57 % 0 lf 1021,4 hPa 0,0 l/m 2 min 0 min 190 W/m 8,4 km/h (2 Bft) 95,74 %
06.08.2017 19:24 21,3 C 21,1 C 18,9 C 57 % 0 lf 1021,4 hPa 0,0 l/m 2 min 0 min 188 W/m 10,5 km/h (2 Bft) 95,65 %
06.08.2017 19:26 21,3 C 21,1 C 18,9 C 57 % 0 lf 1021,5 hPa 0,0 l/m 2 min 0 min 184 W/m 6,3 km/h (2 Bft) 95,74 %
06.08.2017 19:28 21,2 C 21,1 C 18,9 C 57 % 0 lf 1021,5 hPa 0,0 l/m 2 min 0 min 178 W/m 6,3 km/h (2 Bft) 95,74 %
06.08.2017 19:30 21,2 C 21,1 C 18,9 C 57 % 0 lf 1021,5 hPa 0,0 l/m 2 min 0 min 185 W/m 6,3 km/h (2 Bft) 97,87 %
06.08.2017 19:32 21,2 C 21,1 C 18,3 C 57 % 0 lf 1021,4 hPa 0,0 l/m 2 min 0 min 180 W/m 8,4 km/h (2 Bft) 95,74 %
06.08.2017 19:34 21,2 C 21,1 C 18,9 C 57 % 0 lf 1021,4 hPa 0,0 l/m 2 min 0 min 171 W/m 6,3 km/h (2 Bft) 97,87 %
06.08.2017 19:36 21,2 C 21,1 C 18,3 C 57 % 0 lf 1021,5 hPa 0,0 l/m 2 min 0 min 164 W/m 6,3 km/h (2 Bft) 97,83 %
06.08.2017 19:38 21,2 C 21,1 C 18,9 C 57 % 0 lf 1021,4 hPa 0,0 l/m 2 min 0 min 159 W/m 10,5 km/h (2 Bft) 95,74 %
06.08.2017 19:40 21,2 C 21,1 C 18,9 C 56 % 0 lf 1021,3 hPa 0,0 l/m 2 min 0 min 153 W/m 10,5 km/h (2 Bft) 97,87 %
06.08.2017 19:42 21,1 C 21,1 C 18,9 C 56 % 0 lf 1021,4 hPa 0,0 l/m 2 min 0 min 149 W/m 8,4 km/h (2 Bft) 95,74 %
06.08.2017 19:44 21,1 C 21,1 C 18,9 C 56 % 0 lf 1021,4 hPa 0,0 l/m 2 min 0 min 141 W/m 10,5 km/h (2 Bft) 95,74 %
06.08.2017 19:46 21,1 C 20,6 C 18,9 C 57 % 0 lf 1021,3 hPa 0,0 l/m 2 min 0 min 135 W/m 10,5 km/h (2 Bft) 89,13 %
06.08.2017 19:48 21,1 C 20,6 C 18,3 C 57 % 0 lf 1021,3 hPa 0,0 l/m 2 min 0 min 130 W/m 8,4 km/h (2 Bft) 93,62 %
06.08.2017 19:50 21,0 C 20,6 C 18,3 C 57 % 0 lf 1021,3 hPa 0,0 l/m 2 min 0 min 124 W/m 6,3 km/h (2 Bft) 95,74 %
06.08.2017 19:52 21,0 C 20,6 C 18,3 C 58 % 0 lf 1021,4 hPa 0,0 l/m 2 min 0 min 119 W/m 6,3 km/h (2 Bft) 97,87 %
06.08.2017 19:54 21,0 C 20,6 C 18,3 C 58 % 0 lf 1021,4 hPa 0,0 l/m 2 min 0 min 112 W/m 4,2 km/h (1 Bft) 97,87 %
06.08.2017 19:56 21,0 C 20,6 C 18,3 C 58 % 0 lf 1021,4 hPa 0,0 l/m 2 min 0 min 106 W/m 8,4 km/h (2 Bft) 97,87 %
06.08.2017 19:58 21,0 C 20,6 C 18,3 C 58 % 0 lf 1021,5 hPa 0,0 l/m 2 min 0 min 101 W/m 8,4 km/h (2 Bft) 93,48 %
06.08.2017 20:00 20,9 C 20,6 C 17,8 C 58 % 0 lf 1021,4 hPa 0,0 l/m 2 min 0 min 96 W/m 4,2 km/h (1 Bft) 97,87 %
06.08.2017 20:02 20,9 C 20,0 C 17,8 C 59 % 0 lf 1021,4 hPa 0,0 l/m 2 min 0 min 90 W/m 6,3 km/h (2 Bft) 91,49 %
06.08.2017 20:04 20,9 C 20,0 C 17,8 C 59 % 0 lf 1021,4 hPa 0,0 l/m 2 min 0 min 86 W/m 6,3 km/h (2 Bft) 97,87 %
06.08.2017 20:06 20,9 C 20,0 C 17,8 C 59 % 0 lf 1021,4 hPa 0,0 l/m 2 min 0 min 82 W/m 6,3 km/h (2 Bft) 95,74 %
06.08.2017 20:08 20,9 C 20,0 C 17,8 C 58 % 0 lf 1021,4 hPa 0,0 l/m 2 min 0 min 78 W/m 10,5 km/h (2 Bft) 97,87 %
06.08.2017 20:10 20,8 C 20,0 C 17,8 C 58 % 0 lf 1021,4 hPa 0,0 l/m 2 min 0 min 74 W/m 6,3 km/h (2 Bft) 95,65 %
06.08.2017 20:12 20,8 C 20,0 C 17,2 C 58 % 0 lf 1021,3 hPa 0,0 l/m 2 min 0 min 69 W/m 8,4 km/h (2 Bft) 95,74 %
06.08.2017 20:14 20,8 C 20,0 C 17,2 C 58 % 0 lf 1021,3 hPa 0,0 l/m 2 min 0 min 65 W/m 8,4 km/h (2 Bft) 95,74 %
06.08.2017 20:16 20,8 C 19,4 C 17,2 C 58 % 0 lf 1021,3 hPa 0,0 l/m 2 min 0 min 62 W/m 6,3 km/h (2 Bft) 93,62 %
06.08.2017 20:18 20,7 C 19,4 C 17,2 C 58 % 0 lf 1021,4 hPa 0,0 l/m 0 min 0 min 57 W/m 6,3 km/h (2 Bft) 93,62 %
06.08.2017 20:20 20,7 C 19,4 C 16,7 C 59 % 0 lf 1021,4 hPa 0,0 l/m 0 min 0 min 53 W/m 4,2 km/h (1 Bft) 93,62 %
06.08.2017 20:22 20,7 C 19,4 C 16,7 C 59 % 0 lf 1021,4 hPa 0,0 l/m 0 min 0 min 49 W/m 4,2 km/h (1 Bft) 91,30 %
06.08.2017 20:24 20,6 C 19,4 C 16,7 C 59 % 0 lf 1021,3 hPa 0,0 l/m 0 min 0 min 45 W/m 4,2 km/h (1 Bft) 95,74 %
06.08.2017 20:26 20,6 C 19,4 C 16,7 C 60 % 0 lf 1021,3 hPa 0,0 l/m 0 min 0 min 42 W/m 4,2 km/h (1 Bft) 93,62 %
06.08.2017 20:28 20,6 C 19,4 C 16,7 C 60 % 0 lf 1021,3 hPa 0,0 l/m 0 min 0 min 38 W/m 4,2 km/h (1 Bft) 93,62 %
06.08.2017 20:30 20,5 C 19,4 C 16,7 C 60 % 0 lf 1021,3 hPa 0,0 l/m 0 min 0 min 34 W/m 4,2 km/h (1 Bft) 93,62 %
06.08.2017 20:32 20,5 C 18,9 C 16,7 C 60 % 0 lf 1021,4 hPa 0,0 l/m 0 min 0 min 32 W/m 4,2 km/h (1 Bft) 93,62 %
06.08.2017 20:34 20,4 C 18,9 C 16,7 C 61 % 0 lf 1021,4 hPa 0,0 l/m 0 min 0 min 28 W/m 4,2 km/h (1 Bft) 95,65 %
06.08.2017 20:36 20,4 C 18,9 C 16,1 C 61 % 0 lf 1021,3 hPa 0,0 l/m 0 min 0 min 26 W/m 4,2 km/h (1 Bft) 93,62 %
06.08.2017 20:38 20,3 C 18,9 C 16,1 C 62 % 0 lf 1021,3 hPa 0,0 l/m 0 min 0 min 24 W/m 4,2 km/h (1 Bft) 95,74 %
06.08.2017 20:40 20,3 C 18,9 C 16,1 C 62 % 0 lf 1021,4 hPa 0,0 l/m 0 min 0 min 22 W/m 4,2 km/h (1 Bft) 95,74 %
06.08.2017 20:42 20,2 C 18,9 C 16,1 C 62 % 0 lf 1021,4 hPa 0,0 l/m 0 min 0 min 21 W/m 4,2 km/h (1 Bft) 93,62 %
06.08.2017 20:44 20,2 C 18,9 C 15,6 C 62 % 0 lf 1021,4 hPa 0,0 l/m 0 min 0 min 20 W/m 4,2 km/h (1 Bft) 95,74 %
06.08.2017 20:46 20,1 C 18,3 C 15,6 C 62 % 0 lf 1021,4 hPa 0,0 l/m 0 min 0 min 19 W/m 4,2 km/h (1 Bft) 95,65 %
06.08.2017 20:48 20,1 C 18,3 C 15,6 C 63 % 0 lf 1021,5 hPa 0,0 l/m 0 min 0 min 18 W/m 4,2 km/h (1 Bft) 93,62 %
06.08.2017 20:50 20,0 C 18,3 C 15,6 C 63 % 0 lf 1021,5 hPa 0,0 l/m 0 min 0 min 18 W/m 4,2 km/h (1 Bft) 95,74 %
06.08.2017 20:53 19,9 C 17,8 C 15,6 C 63 % 0 lf 1021,4 hPa 0,0 l/m 0 min 0 min 16 W/m 4,2 km/h (1 Bft) 92,86 %
06.08.2017 20:54 19,9 C 17,8 C 15,6 C 63 % 0 lf 1021,4 hPa 0,0 l/m 0 min 0 min 15 W/m 4,2 km/h (1 Bft) 95,83 %
06.08.2017 20:58 19,8 C 17,8 C 15,0 C 64 % 0 lf 1021,4 hPa 0,0 l/m 0 min 0 min 14 W/m 4,2 km/h (1 Bft) 95,70 %
06.08.2017 20:59 19,7 C 17,2 C 15,0 C 64 % 0 lf 1021,4 hPa 0,0 l/m 0 min 0 min 12 W/m 4,2 km/h (1 Bft) 91,67 %
06.08.2017 21:00 19,7 C 17,2 C 15,0 C 64 % 0 lf 1021,4 hPa 0,0 l/m 0 min 0 min 13 W/m 4,2 km/h (1 Bft) 98,25 %
06.08.2017 21:05 19,6 C 17,2 C 15,0 C 65 % 0 lf 1021,5 hPa 0,0 l/m 0 min 0 min 10 W/m 4,2 km/h (1 Bft) 100,00 %
06.08.2017 21:10 19,4 C 16,7 C 14,4 C 66 % 0 lf 1021,4 hPa 0,0 l/m 0 min 0 min 8 W/m 0,0 km/h (0 Bft) 100,00 %
06.08.2017 21:15 19,2 C 16,1 C 14,4 C 67 % 0 lf 1021,5 hPa 0,0 l/m 0 min 0 min 6 W/m 0,0 km/h (0 Bft) 100,00 %
06.08.2017 21:20 19,0 C 16,1 C 13,9 C 68 % 0 lf 1021,5 hPa 0,0 l/m 0 min 0 min 3 W/m 0,0 km/h (0 Bft) 100,00 %
06.08.2017 21:25 18,8 C 16,1 C 13,9 C 68 % 0 lf 1021,4 hPa 0,0 l/m 0 min 0 min 0 W/m 0,0 km/h (0 Bft) 100,00 %
06.08.2017 21:30 18,6 C 16,1 C 13,9 C 68 % 0 lf 1021,5 hPa 0,0 l/m 0 min 0 min 0 W/m 0,0 km/h (0 Bft) 100,00 %
06.08.2017 21:32 18,6 C 16,1 C 13,9 C 68 % 0 lf 1021,6 hPa 0,0 l/m 0 min 0 min 0 W/m 0,0 km/h (0 Bft) 95,00 %
06.08.2017 21:34 18,5 C 16,1 C 13,9 C 68 % 0 lf 1021,6 hPa 0,0 l/m 0 min 0 min 0 W/m 0,0 km/h (0 Bft) 100,00 %
06.08.2017 21:36 18,4 C 16,1 C 13,9 C 68 % 0 lf 1021,6 hPa 0,0 l/m 0 min 0 min 0 W/m 0,0 km/h (0 Bft) 97,92 %
06.08.2017 21:38 18,3 C 15,6 C 13,3 C 68 % 0 lf 1021,6 hPa 0,0 l/m 0 min 0 min 0 W/m 0,0 km/h (0 Bft) 100,00 %
06.08.2017 21:40 18,3 C 15,6 C 13,3 C 68 % 0 lf 1021,5 hPa 0,0 l/m 0 min 0 min 0 W/m 0,0 km/h (0 Bft) 97,87 %
06.08.2017 21:42 18,2 C 15,6 C 13,3 C 68 % 0 lf 1021,6 hPa 0,0 l/m 0 min 0 min 0 W/m 0,0 km/h (0 Bft) 100,00 %
06.08.2017 21:44 18,1 C 15,6 C 13,3 C 69 % 0 lf 1021,6 hPa 0,0 l/m 0 min 0 min 4 W/m 0,0 km/h (0 Bft) 94,74 %
06.08.2017 21:46 18,0 C 15,6 C 13,3 C 69 % 0 lf 1021,6 hPa 0,0 l/m 0 min 0 min 0 W/m 0,0 km/h (0 Bft) 100,00 %
06.08.2017 21:48 17,9 C 15,6 C 13,3 C 69 % 0 lf 1021,6 hPa 0,0 l/m 0 min 0 min 2 W/m 0,0 km/h (0 Bft) 97,87 %
06.08.2017 21:50 17,8 C 15,6 C 13,3 C 69 % 0 lf 1021,6 hPa 0,0 l/m 0 min 0 min 2 W/m 0,0 km/h (0 Bft) 98,15 %
06.08.2017 21:52 17,8 C 15,0 C 13,3 C 69 % 0 lf 1021,6 hPa 0,0 l/m 0 min 0 min 5 W/m 0,0 km/h (0 Bft) 97,87 %
06.08.2017 21:54 17,7 C 15,0 C 13,3 C 70 % 0 lf 1021,6 hPa 0,0 l/m 0 min 0 min 5 W/m 0,0 km/h (0 Bft) 97,37 %
06.08.2017 21:56 17,6 C 15,0 C 12,8 C 70 % 0 lf 1021,7 hPa 0,0 l/m 0 min 0 min 5 W/m 0,0 km/h (0 Bft) 97,92 %
06.08.2017 21:58 17,6 C 15,0 C 12,8 C 71 % 0 lf 1021,6 hPa 0,0 l/m 0 min 0 min 0 W/m 0,0 km/h (0 Bft) 93,62 %
06.08.2017 22:00 17,5 C 15,0 C 12,8 C 71 % 0 lf 1021,6 hPa 0,0 l/m 0 min 0 min 2 W/m 0,0 km/h (0 Bft) 94,44 %
06.08.2017 22:02 17,4 C 15,0 C 12,8 C 72 % 0 lf 1021,6 hPa 0,0 l/m 0 min 0 min 0 W/m 0,0 km/h (0 Bft) 97,37 %
06.08.2017 22:04 17,3 C 15,0 C 12,8 C 72 % 0 lf 1021,6 hPa 0,0 l/m 0 min 0 min 3 W/m 0,0 km/h (0 Bft) 95,92 %
06.08.2017 22:06 17,3 C 15,0 C 12,8 C 73 % 0 lf 1021,6 hPa 0,0 l/m 0 min 0 min 5 W/m 0,0 km/h (0 Bft) 97,87 %
06.08.2017 22:08 17,2 C 15,0 C 12,8 C 73 % 0 lf 1021,6 hPa 0,0 l/m 0 min 0 min 5 W/m 0,0 km/h (0 Bft) 97,83 %
06.08.2017 22:10 17,2 C 15,0 C 12,8 C 73 % 0 lf 1021,6 hPa 0,0 l/m 0 min 0 min 3 W/m 0,0 km/h (0 Bft) 96,30 %
06.08.2017 22:12 17,1 C 14,4 C 12,8 C 74 % 0 lf 1021,6 hPa 0,0 l/m 0 min 0 min 0 W/m 0,0 km/h (0 Bft) 94,74 %
06.08.2017 22:14 17,1 C 14,4 C 12,8 C 74 % 0 lf 1021,6 hPa 0,0 l/m 0 min 0 min 0 W/m 0,0 km/h (0 Bft) 97,96 %
06.08.2017 22:16 17,0 C 15,0 C 12,8 C 74 % 0 lf 1021,6 hPa 0,0 l/m 0 min 0 min 0 W/m 0,0 km/h (0 Bft) 97,87 %
06.08.2017 22:18 16,9 C 15,0 C 12,8 C 75 % 0 lf 1021,6 hPa 0,0 l/m 0 min 0 min 0 W/m 0,0 km/h (0 Bft) 94,44 %
06.08.2017 22:20 16,9 C 14,4 C 12,8 C 75 % 0 lf 1021,6 hPa 0,0 l/m 0 min 0 min 0 W/m 0,0 km/h (0 Bft) 94,74 %
06.08.2017 22:22 16,8 C 14,4 C 12,8 C 75 % 0 lf 1021,6 hPa 0,0 l/m 0 min 0 min 4 W/m 0,0 km/h (0 Bft) 95,74 %
06.08.2017 22:24 16,7 C 14,4 C 12,8 C 76 % 0 lf 1021,6 hPa 0,0 l/m 0 min 0 min 0 W/m 0,0 km/h (0 Bft) 95,83 %
06.08.2017 22:26 16,7 C 13,9 C 12,8 C 76 % 0 lf 1021,6 hPa 0,0 l/m 0 min 0 min 0 W/m 0,0 km/h (0 Bft) 95,74 %
06.08.2017 22:28 16,6 C 13,9 C 12,2 C 77 % 0 lf 1021,6 hPa 0,0 l/m 0 min 0 min 0 W/m 0,0 km/h (0 Bft) 94,44 %
06.08.2017 22:30 16,5 C 13,9 C 12,2 C 77 % 0 lf 1021,6 hPa 0,0 l/m 0 min 0 min 0 W/m 0,0 km/h (0 Bft) 94,74 %
06.08.2017 22:32 16,4 C 13,9 C 12,2 C 77 % 0 lf 1021,6 hPa 0,0 l/m 0 min 0 min 0 W/m 0,0 km/h (0 Bft) 93,75 %
06.08.2017 22:34 16,4 C 13,3 C 12,2 C 78 % 0 lf 1021,6 hPa 0,0 l/m 0 min 0 min 0 W/m 0,0 km/h (0 Bft) 95,74 %
06.08.2017 22:36 16,3 C 13,3 C 12,2 C 78 % 0 lf 1021,6 hPa 0,0 l/m 0 min 0 min 0 W/m 0,0 km/h (0 Bft) 89,36 %
06.08.2017 22:38 16,3 C 13,3 C 12,2 C 78 % 0 lf 1021,7 hPa 0,0 l/m 0 min 0 min 0 W/m 0,0 km/h (0 Bft) 90,74 %
06.08.2017 22:40 16,2 C 13,3 C 12,2 C 78 % 0 lf 1021,6 hPa 0,0 l/m 0 min 0 min 0 W/m 0,0 km/h (0 Bft) 94,74 %
06.08.2017 22:42 16,1 C 13,3 C 12,2 C 79 % 0 lf 1021,5 hPa 0,0 l/m 0 min 0 min 0 W/m 0,0 km/h (0 Bft) 91,67 %
06.08.2017 22:44 16,1 C 13,3 C 12,2 C 79 % 0 lf 1021,6 hPa 0,0 l/m 0 min 0 min 0 W/m 0,0 km/h (0 Bft) 95,74 %
06.08.2017 22:46 16,0 C 13,3 C 12,2 C 79 % 0 lf 1021,6 hPa 0,0 l/m 0 min 0 min 0 W/m 0,0 km/h (0 Bft) 92,59 %
06.08.2017 22:48 15,9 C 13,3 C 12,2 C 79 % 0 lf 1021,6 hPa 0,0 l/m 0 min 0 min 0 W/m 0,0 km/h (0 Bft) 94,74 %
06.08.2017 22:50 15,9 C 13,3 C 12,2 C 79 % 0 lf 1021,6 hPa 0,0 l/m 0 min 0 min 0 W/m 0,0 km/h (0 Bft) 93,88 %
06.08.2017 22:52 15,8 C 13,3 C 12,2 C 79 % 0 lf 1021,6 hPa 0,0 l/m 0 min 0 min 0 W/m 0,0 km/h (0 Bft) 95,74 %
06.08.2017 22:54 15,8 C 12,8 C 12,2 C 79 % 0 lf 1021,6 hPa 0,0 l/m 0 min 0 min 0 W/m 0,0 km/h (0 Bft) 95,74 %
06.08.2017 22:56 15,7 C 13,3 C 12,2 C 80 % 0 lf 1021,6 hPa 0,0 l/m 0 min 0 min 0 W/m 0,0 km/h (0 Bft) 97,67 %
06.08.2017 22:58 15,7 C 13,3 C 12,2 C 80 % 0 lf 1021,5 hPa 0,0 l/m 0 min 0 min 0 W/m 0,0 km/h (0 Bft) 94,64 %
06.08.2017 23:00 15,6 C 13,3 C 12,2 C 80 % 0 lf 1021,5 hPa 0,0 l/m 0 min 0 min 0 W/m 0,0 km/h (0 Bft) 94,74 %
06.08.2017 23:02 15,6 C 13,3 C 12,2 C 80 % 0 lf 1021,5 hPa 0,0 l/m 0 min 0 min 0 W/m 0,0 km/h (0 Bft) 98,00 %
06.08.2017 23:04 15,5 C 13,3 C 11,7 C 80 % 0 lf 1021,5 hPa 0,0 l/m 0 min 0 min 0 W/m 0,0 km/h (0 Bft) 97,87 %
06.08.2017 23:06 15,4 C 13,3 C 11,7 C 80 % 0 lf 1021,5 hPa 0,0 l/m 0 min 0 min 0 W/m 0,0 km/h (0 Bft) 95,65 %
06.08.2017 23:08 15,4 C 13,3 C 11,7 C 80 % 0 lf 1021,5 hPa 0,0 l/m 0 min 0 min 0 W/m 0,0 km/h (0 Bft) 92,45 %
06.08.2017 23:10 15,3 C 13,3 C 11,7 C 81 % 0 lf 1021,5 hPa 0,0 l/m 0 min 0 min 1 W/m 0,0 km/h (0 Bft) 97,44 %
06.08.2017 23:12 15,3 C 13,3 C 11,7 C 81 % 0 lf 1021,5 hPa 0,0 l/m 0 min 0 min 0 W/m 0,0 km/h (0 Bft) 97,96 %
06.08.2017 23:14 15,2 C 12,8 C 11,7 C 81 % 0 lf 1021,5 hPa 0,0 l/m 0 min 0 min 0 W/m 0,0 km/h (0 Bft) 97,87 %
06.08.2017 23:16 15,2 C 12,8 C 11,7 C 81 % 0 lf 1021,5 hPa 0,0 l/m 0 min 0 min 0 W/m 0,0 km/h (0 Bft) 98,11 %
06.08.2017 23:18 15,2 C 13,3 C 11,7 C 81 % 0 lf 1021,5 hPa 0,0 l/m 0 min 0 min 3 W/m 0,0 km/h (0 Bft) 97,37 %
06.08.2017 23:20 15,1 C 13,3 C 11,7 C 82 % 0 lf 1021,5 hPa 0,0 l/m 0 min 0 min 0 W/m 2,1 km/h (1 Bft) 97,96 %
06.08.2017 23:22 15,1 C 12,8 C 11,7 C 82 % 0 lf 1021,5 hPa 0,0 l/m 0 min 0 min 0 W/m 2,1 km/h (1 Bft) 100,00 %
06.08.2017 23:24 15,0 C 13,3 C 11,7 C 82 % 0 lf 1021,5 hPa 0,0 l/m 0 min 0 min 0 W/m 2,1 km/h (1 Bft) 100,00 %
06.08.2017 23:26 15,0 C 13,3 C 11,7 C 82 % 0 lf 1021,5 hPa 0,0 l/m 0 min 0 min 0 W/m 2,1 km/h (1 Bft) 97,87 %
06.08.2017 23:28 14,9 C 13,3 C 11,7 C 82 % 0 lf 1021,5 hPa 0,0 l/m 0 min 0 min 0 W/m 4,2 km/h (1 Bft) 100,00 %
06.08.2017 23:30 14,9 C 13,3 C 11,7 C 83 % 0 lf 1021,5 hPa 0,0 l/m 0 min 0 min 0 W/m 2,1 km/h (1 Bft) 100,00 %
06.08.2017 23:32 14,8 C 12,8 C 11,7 C 83 % 0 lf 1021,5 hPa 0,0 l/m 0 min 0 min 0 W/m 0,0 km/h (0 Bft) 98,11 %
06.08.2017 23:34 14,8 C 12,8 C 11,7 C 83 % 0 lf 1021,5 hPa 0,0 l/m 0 min 0 min 0 W/m 0,0 km/h (0 Bft) 100,00 %
06.08.2017 23:36 14,8 C 13,3 C 11,7 C 83 % 0 lf 1021,5 hPa 0,0 l/m 0 min 0 min 0 W/m 0,0 km/h (0 Bft) 100,00 %
06.08.2017 23:38 14,7 C 13,3 C 11,7 C 83 % 0 lf 1021,5 hPa 0,0 l/m 0 min 0 min 0 W/m 0,0 km/h (0 Bft) 100,00 %
06.08.2017 23:40 14,7 C 13,3 C 11,7 C 84 % 0 lf 1021,5 hPa 0,0 l/m 0 min 0 min 0 W/m 0,0 km/h (0 Bft) 100,00 %
06.08.2017 23:42 14,7 C 13,3 C 11,7 C 84 % 0 lf 1021,5 hPa 0,0 l/m 0 min 0 min 0 W/m 0,0 km/h (0 Bft) 95,83 %
06.08.2017 23:44 14,6 C 13,3 C 11,7 C 84 % 0 lf 1021,5 hPa 0,0 l/m 0 min 0 min 1 W/m 0,0 km/h (0 Bft) 93,48 %
06.08.2017 23:46 14,6 C 13,3 C 11,7 C 84 % 0 lf 1021,4 hPa 0,0 l/m 0 min 0 min 5 W/m 0,0 km/h (0 Bft) 97,87 %
06.08.2017 23:48 14,5 C 13,3 C 11,7 C 84 % 0 lf 1021,4 hPa 0,0 l/m 0 min 0 min 3 W/m 0,0 km/h (0 Bft) 97,87 %
06.08.2017 23:50 14,5 C 13,3 C 11,7 C 85 % 0 lf 1021,4 hPa 0,0 l/m 0 min 0 min 0 W/m 0,0 km/h (0 Bft) 100,00 %
06.08.2017 23:52 14,4 C 13,3 C 11,7 C 85 % 0 lf 1021,5 hPa 0,0 l/m 0 min 0 min 0 W/m 0,0 km/h (0 Bft) 100,00 %
06.08.2017 23:54 14,4 C 13,3 C 11,7 C 85 % 0 lf 1021,4 hPa 0,0 l/m 0 min 0 min 4 W/m 0,0 km/h (0 Bft) 100,00 %
06.08.2017 23:56 14,3 C 13,3 C 11,7 C 85 % 0 lf 1021,5 hPa 0,0 l/m 0 min 0 min 0 W/m 0,0 km/h (0 Bft) 100,00 %
06.08.2017 23:58 14,3 C 13,3 C 11,7 C 85 % 0 lf 1021,4 hPa 0,0 l/m 0 min 0 min 0 W/m 0,0 km/h (0 Bft) 100,00 %
_ Min-Zeit 06:32 04:12 03:56 14:56 09:04 00:00 - - - - 00:00 00:04
Minimum _ 11,6 C 10,6 C 10,0 C 51 % 0 lf 1018,1 hPa - - - - 0,0 km/h (0 Bft) 9,09 %
_ Max-Zeit 14:50 14:02 15:50 07:54 03:46 11:06 00:00 12:10 06:18 13:24 14:50 00:48
Maximum _ 23,6 C 33,3 C 32,2 C 98 % 15 lf 1023,0 hPa 0,0 l/m 4 min 2 min 1136 W/m 23,0 km/h
W (4 Bft)
100,00 %
Durchschnitt _ 17,3 C 18,8 C 16,6 C 77 % 4 lf 1021,3 hPa #0,0 l/m #10:40 h #2 min. 342 W/m 8,1 km/h (2 Bft) 96,34 %
© 2017 W. Hausmann